| time (UTC) | temp C | wind direction | speed KPH | gust KPH | rain 1hr cm | rain 24hr cm | rain mn cm | humidity % | barometer mb |
| 20260504231117 | 27 | 360 | 11.3 | 33.8 | 0.00 | 0.00 | 0.00 | 61 | 1010.1 |
| 20260504231017 | 27 | 360 | 12.9 | 33.8 | 0.00 | 0.00 | 0.00 | 61 | 1010.1 |
| 20260504230917 | 26 | 360 | 11.3 | 37.0 | 0.00 | 0.00 | 0.00 | 61 | 1010.1 |
| 20260504230818 | 26 | 360 | 8.0 | 37.0 | 0.00 | 0.00 | 0.00 | 61 | 1010.1 |
| 20260504230739 | 26 | 360 | 8.0 | 37.0 | 0.00 | 0.00 | 0.00 | 62 | 1010.2 |
| 20260504230618 | 26 | 360 | 9.7 | 37.0 | 0.00 | 0.00 | 0.00 | 62 | 1010.3 |
| 20260504230543 | 26 | 360 | 9.7 | 37.0 | 0.00 | 0.00 | 0.00 | 62 | 1010.3 |
| 20260504230416 | 26 | 360 | 14.5 | 37.0 | 0.00 | 0.00 | 0.00 | 62 | 1010.3 |
| 20260504230336 | 26 | 360 | 17.7 | 37.0 | 0.00 | 0.00 | 0.00 | 62 | 1010.3 |
| 20260504230256 | 26 | 360 | 20.9 | 37.0 | 0.00 | 0.00 | 0.00 | 62 | 1010.3 |
| 20260504230116 | 26 | 360 | 19.3 | 37.0 | 0.00 | 0.00 | 0.00 | 61 | 1010.3 |
| 20260504230016 | 26 | 360 | 19.3 | 35.4 | 0.00 | 0.00 | 0.00 | 61 | 1010.4 |
| 20260504225917 | 26 | 360 | 16.1 | 35.4 | 0.00 | 0.00 | 0.00 | 61 | 1010.4 |
| 20260504225842 | 27 | 360 | 16.1 | 35.4 | 0.00 | 0.00 | 0.00 | 61 | 1010.4 |
| 20260504225720 | 27 | 360 | 12.9 | 35.4 | 0.00 | 0.00 | 0.00 | 62 | 1010.4 |
| 20260504225642 | 27 | 360 | 12.9 | 35.4 | 0.00 | 0.00 | 0.00 | 61 | 1010.4 |
| 20260504225604 | 27 | 360 | 12.9 | 35.4 | 0.00 | 0.00 | 0.00 | 61 | 1010.5 |
| 20260504225443 | 27 | 360 | 14.5 | 35.4 | 0.00 | 0.00 | 0.00 | 61 | 1010.5 |
| 20260504225316 | 27 | 360 | 11.3 | 29.0 | 0.00 | 0.00 | 0.00 | 61 | 1010.5 |
| 20260504225217 | 27 | 360 | 11.3 | 27.4 | 0.00 | 0.00 | 0.00 | 61 | 1010.4 |
| 20260504225117 | 27 | 360 | 9.7 | 27.4 | 0.00 | 0.00 | 0.00 | 61 | 1010.6 |
| 20260504225022 | 27 | 360 | 9.7 | 27.4 | 0.00 | 0.00 | 0.00 | 61 | 1010.5 |
| 20260504224942 | 27 | 360 | 9.7 | 32.2 | 0.00 | 0.00 | 0.00 | 61 | 1010.5 |
| 20260504224821 | 27 | 360 | 9.7 | 32.2 | 0.00 | 0.00 | 0.00 | 61 | 1010.6 |
| 20260504224742 | 27 | 360 | 11.3 | 35.4 | 0.00 | 0.00 | 0.00 | 61 | 1010.6 |
| 20260504224622 | 27 | 360 | 11.3 | 35.4 | 0.00 | 0.00 | 0.00 | 61 | 1010.6 |
| 20260504224522 | 27 | 360 | 12.9 | 35.4 | 0.00 | 0.00 | 0.00 | 60 | 1010.6 |
| 20260504224422 | 27 | 360 | 11.3 | 35.4 | 0.00 | 0.00 | 0.00 | 60 | 1010.5 |
| 20260504224343 | 27 | 360 | 11.3 | 35.4 | 0.00 | 0.00 | 0.00 | 60 | 1010.5 |
| 20260504224226 | 27 | 360 | 11.3 | 35.4 | 0.00 | 0.00 | 0.00 | 60 | 1010.6 |
| 20260504224127 | 27 | 360 | 11.3 | 35.4 | 0.00 | 0.00 | 0.00 | 60 | 1010.6 |
| 20260504224027 | 27 | 360 | 11.3 | 35.4 | 0.00 | 0.00 | 0.00 | 60 | 1010.6 |
| 20260504223946 | 27 | 360 | 11.3 | 35.4 | 0.00 | 0.00 | 0.00 | 60 | 1010.6 |
| 20260504223825 | 27 | 360 | 11.3 | 32.2 | 0.00 | 0.00 | 0.00 | 60 | 1010.6 |
| 20260504223727 | 27 | 360 | 11.3 | 32.2 | 0.00 | 0.00 | 0.00 | 59 | 1010.6 |
| 20260504223627 | 27 | 360 | 11.3 | 37.0 | 0.00 | 0.00 | 0.00 | 59 | 1010.7 |
| 20260504223532 | 27 | 360 | 11.3 | 37.0 | 0.00 | 0.00 | 0.00 | 60 | 1010.7 |
| 20260504223433 | 27 | 360 | 11.3 | 37.0 | 0.00 | 0.00 | 0.00 | 60 | 1010.7 |
| 20260504223333 | 27 | 360 | 11.3 | 37.0 | 0.00 | 0.00 | 0.00 | 60 | 1010.6 |
| 20260504223234 | 27 | 360 | 11.3 | 37.0 | 0.00 | 0.00 | 0.00 | 60 | 1010.7 |
| 20260504223133 | 27 | 360 | 12.9 | 37.0 | 0.00 | 0.00 | 0.00 | 60 | 1010.6 |
| 20260504223035 | 27 | 360 | 11.3 | 37.0 | 0.00 | 0.00 | 0.00 | 60 | 1010.6 |
| 20260504222920 | 27 | 360 | 12.9 | 32.2 | 0.00 | 0.00 | 0.00 | 60 | 1010.7 |
| 20260504222822 | 27 | 360 | 11.3 | 32.2 | 0.00 | 0.00 | 0.00 | 60 | 1010.7 |
| 20260504222722 | 27 | 360 | 12.9 | 32.2 | 0.00 | 0.00 | 0.00 | 60 | 1010.6 |
| 20260504222642 | 27 | 360 | 12.9 | 32.2 | 0.00 | 0.00 | 0.00 | 60 | 1010.6 |
| 20260504222603 | 27 | 360 | 11.3 | 40.2 | 0.00 | 0.00 | 0.00 | 60 | 1010.7 |
| 20260504222416 | 27 | 360 | 11.3 | 40.2 | 0.00 | 0.00 | 0.00 | 60 | 1010.7 |
| 20260504222336 | 27 | 360 | 12.9 | 40.2 | 0.00 | 0.00 | 0.00 | 60 | 1010.7 |
| 20260504222220 | 27 | 360 | 12.9 | 40.2 | 0.00 | 0.00 | 0.00 | 60 | 1010.8 |
| 20260504222121 | 27 | 360 | 14.5 | 40.2 | 0.00 | 0.00 | 0.00 | 60 | 1010.8 |
| 20260504222022 | 27 | 360 | 12.9 | 40.2 | 0.00 | 0.00 | 0.00 | 59 | 1010.8 |
| 20260504221923 | 27 | 360 | 17.7 | 40.2 | 0.00 | 0.00 | 0.00 | 59 | 1010.8 |
| 20260504221824 | 27 | 360 | 17.7 | 40.2 | 0.00 | 0.00 | 0.00 | 59 | 1010.7 |
| 20260504221723 | 27 | 360 | 17.7 | 40.2 | 0.00 | 0.00 | 0.00 | 59 | 1010.7 |
| 20260504221628 | 27 | 360 | 17.7 | 40.2 | 0.00 | 0.00 | 0.00 | 59 | 1010.7 |
| 20260504221529 | 27 | 360 | 14.5 | 40.2 | 0.00 | 0.00 | 0.00 | 60 | 1010.7 |
| 20260504221430 | 27 | 360 | 14.5 | 40.2 | 0.00 | 0.00 | 0.00 | 59 | 1010.7 |
| 20260504221329 | 27 | 360 | 11.3 | 30.6 | 0.00 | 0.00 | 0.00 | 59 | 1010.7 |
| 20260504221230 | 27 | 360 | 11.3 | 30.6 | 0.00 | 0.00 | 0.00 | 59 | 1010.6 |
| 20260504221152 | 27 | 360 | 12.9 | 30.6 | 0.00 | 0.00 | 0.00 | 59 | 1010.7 |
| 20260504221032 | 27 | 360 | 12.9 | 30.6 | 0.00 | 0.00 | 0.00 | 59 | 1010.7 |
| 20260504220917 | 27 | 360 | 12.9 | 30.6 | 0.00 | 0.00 | 0.00 | 59 | 1010.7 |
| 20260504220816 | 27 | 360 | 11.3 | 29.0 | 0.00 | 0.00 | 0.00 | 61 | 1010.7 |
| 20260504220718 | 27 | 360 | 11.3 | 29.0 | 0.00 | 0.00 | 0.00 | 61 | 1010.7 |
| 20260504220618 | 27 | 360 | 12.9 | 29.0 | 0.00 | 0.00 | 0.00 | 61 | 1010.7 |
| 20260504220519 | 27 | 360 | 14.5 | 32.2 | 0.00 | 0.00 | 0.00 | 61 | 1010.7 |
| 20260504220419 | 27 | 360 | 14.5 | 32.2 | 0.00 | 0.00 | 0.00 | 61 | 1010.8 |
| 20260504220341 | 27 | 360 | 16.1 | 32.2 | 0.00 | 0.00 | 0.00 | 62 | 1010.7 |
| 20260504220225 | 27 | 360 | 16.1 | 32.2 | 0.00 | 0.00 | 0.00 | 61 | 1010.7 |
| 20260504220126 | 27 | 360 | 16.1 | 32.2 | 0.00 | 0.00 | 0.00 | 61 | 1010.7 |
| 20260504220027 | 27 | 360 | 16.1 | 32.2 | 0.00 | 0.00 | 0.00 | 61 | 1010.8 |
| 20260504215927 | 27 | 360 | 14.5 | 41.8 | 0.00 | 0.00 | 0.00 | 61 | 1010.8 |
| 20260504215828 | 27 | 360 | 14.5 | 41.8 | 0.00 | 0.00 | 0.00 | 61 | 1010.9 |
| 20260504215729 | 27 | 360 | 16.1 | 41.8 | 0.00 | 0.00 | 0.00 | 61 | 1010.8 |
| 20260504215632 | 27 | 360 | 14.5 | 41.8 | 0.00 | 0.00 | 0.00 | 60 | 1011.0 |
| 20260504215533 | 27 | 360 | 17.7 | 41.8 | 0.00 | 0.00 | 0.00 | 60 | 1011.0 |
| 20260504215433 | 27 | 360 | 16.1 | 41.8 | 0.00 | 0.00 | 0.00 | 60 | 1011.0 |
| 20260504215334 | 27 | 360 | 16.1 | 41.8 | 0.00 | 0.00 | 0.00 | 60 | 1011.0 |
| 20260504215233 | 27 | 360 | 16.1 | 41.8 | 0.00 | 0.00 | 0.00 | 59 | 1010.9 |
| 20260504215134 | 27 | 360 | 14.5 | 41.8 | 0.00 | 0.00 | 0.00 | 59 | 1010.8 |
| 20260504215033 | 27 | 360 | 12.9 | 33.8 | 0.00 | 0.00 | 0.00 | 60 | 1010.8 |
| 20260504214918 | 27 | 360 | 11.3 | 38.6 | 0.00 | 0.00 | 0.00 | 59 | 1010.8 |
| 20260504214818 | 27 | 360 | 11.3 | 38.6 | 0.00 | 0.00 | 0.00 | 59 | 1010.8 |
| 20260504214718 | 27 | 360 | 14.5 | 38.6 | 0.00 | 0.00 | 0.00 | 59 | 1010.8 |
| 20260504214638 | 27 | 360 | 12.9 | 41.8 | 0.00 | 0.00 | 0.00 | 59 | 1010.8 |
| 20260504214518 | 27 | 360 | 12.9 | 43.5 | 0.00 | 0.00 | 0.00 | 59 | 1010.8 |
| 20260504214418 | 27 | 360 | 16.1 | 43.5 | 0.00 | 0.00 | 0.00 | 61 | 1010.8 |
| 20260504214318 | 27 | 360 | 17.7 | 43.5 | 0.00 | 0.00 | 0.00 | 61 | 1010.8 |
| 20260504214223 | 27 | 360 | 16.1 | 43.5 | 0.00 | 0.00 | 0.00 | 61 | 1010.8 |
| 20260504214123 | 27 | 360 | 19.3 | 43.5 | 0.00 | 0.00 | 0.00 | 60 | 1010.9 |
| 20260504214044 | 27 | 360 | 24.1 | 43.5 | 0.00 | 0.00 | 0.00 | 60 | 1010.9 |
| 20260504213923 | 27 | 360 | 24.1 | 43.5 | 0.00 | 0.00 | 0.00 | 60 | 1011.0 |
| 20260504213823 | 27 | 360 | 22.5 | 43.5 | 0.00 | 0.00 | 0.00 | 60 | 1010.8 |
| 20260504213722 | 27 | 360 | 24.1 | 43.5 | 0.00 | 0.00 | 0.00 | 60 | 1010.9 |
| 20260504213622 | 27 | 360 | 22.5 | 41.8 | 0.00 | 0.00 | 0.00 | 60 | 1010.8 |
| 20260504213527 | 27 | 360 | 19.3 | 40.2 | 0.00 | 0.00 | 0.00 | 61 | 1010.8 |
| 20260504213427 | 27 | 360 | 19.3 | 40.2 | 0.00 | 0.00 | 0.00 | 60 | 1010.8 |
| 20260504213348 | 27 | 360 | 16.1 | 40.2 | 0.00 | 0.00 | 0.00 | 60 | 1010.9 |
| 20260504213227 | 27 | 360 | 12.9 | 37.0 | 0.00 | 0.00 | 0.00 | 61 | 1010.9 |
| 20260504213127 | 27 | 360 | 12.9 | 37.0 | 0.00 | 0.00 | 0.00 | 61 | 1010.8 |
| 20260504213027 | 27 | 360 | 11.3 | 37.0 | 0.00 | 0.00 | 0.00 | 61 | 1010.9 |
| 20260504212928 | 27 | 360 | 11.3 | 37.0 | 0.00 | 0.00 | 0.00 | 60 | 1011.0 |
| 20260504212833 | 27 | 360 | 14.5 | 37.0 | 0.00 | 0.00 | 0.00 | 61 | 1011.0 |
| 20260504212734 | 27 | 360 | 14.5 | 37.0 | 0.00 | 0.00 | 0.00 | 61 | 1011.0 |
| 20260504212634 | 27 | 360 | 17.7 | 37.0 | 0.00 | 0.00 | 0.00 | 61 | 1011.1 |
| 20260504212556 | 27 | 360 | 19.3 | 37.0 | 0.00 | 0.00 | 0.00 | 61 | 1011.1 |
| 20260504212436 | 27 | 360 | 19.3 | 37.0 | 0.00 | 0.00 | 0.00 | 61 | 1011.1 |
| 20260504212316 | 26 | 360 | 19.3 | 32.2 | 0.00 | 0.00 | 0.00 | 61 | 1011.0 |
| 20260504212217 | 26 | 360 | 19.3 | 32.2 | 0.00 | 0.00 | 0.00 | 61 | 1011.1 |
| 20260504212121 | 26 | 360 | 17.7 | 32.2 | 0.00 | 0.00 | 0.00 | 60 | 1011.2 |
| 20260504212023 | 27 | 360 | 16.1 | 32.2 | 0.00 | 0.00 | 0.00 | 61 | 1011.1 |
| 20260504211942 | 27 | 360 | 14.5 | 32.2 | 0.00 | 0.00 | 0.00 | 60 | 1011.1 |
| 20260504211816 | 27 | 360 | 14.5 | 32.2 | 0.00 | 0.00 | 0.00 | 60 | 1011.2 |
| 20260504211737 | 27 | 360 | 14.5 | 46.7 | 0.00 | 0.00 | 0.00 | 60 | 1011.2 |
| 20260504211616 | 27 | 360 | 14.5 | 46.7 | 0.00 | 0.00 | 0.00 | 60 | 1011.1 |
| 20260504211516 | 27 | 360 | 12.9 | 46.7 | 0.00 | 0.00 | 0.00 | 59 | 1011.2 |
| 20260504211420 | 27 | 360 | 9.7 | 46.7 | 0.00 | 0.00 | 0.00 | 60 | 1011.3 |
| 20260504211321 | 27 | 360 | 11.3 | 46.7 | 0.00 | 0.00 | 0.00 | 60 | 1011.3 |
| 20260504211220 | 27 | 360 | 12.9 | 46.7 | 0.00 | 0.00 | 0.00 | 60 | 1011.3 |
| 20260504211120 | 27 | 360 | 16.1 | 46.7 | 0.00 | 0.00 | 0.00 | 60 | 1011.3 |
| 20260504211021 | 27 | 360 | 19.3 | 46.7 | 0.00 | 0.00 | 0.00 | 59 | 1011.3 |
| 20260504210921 | 27 | 360 | 17.7 | 46.7 | 0.00 | 0.00 | 0.00 | 59 | 1011.3 |
| 20260504210822 | 27 | 360 | 16.1 | 35.4 | 0.00 | 0.00 | 0.00 | 60 | 1011.3 |
| 20260504210728 | 27 | 360 | 14.5 | 33.8 | 0.00 | 0.00 | 0.00 | 60 | 1011.3 |
| 20260504210629 | 27 | 360 | 12.9 | 33.8 | 0.00 | 0.00 | 0.00 | 59 | 1011.4 |
| 20260504210528 | 27 | 360 | 9.7 | 33.8 | 0.00 | 0.00 | 0.00 | 59 | 1011.4 |
| 20260504210428 | 27 | 360 | 11.3 | 33.8 | 0.00 | 0.00 | 0.00 | 59 | 1011.5 |
| 20260504210329 | 27 | 360 | 11.3 | 33.8 | 0.00 | 0.00 | 0.00 | 59 | 1011.4 |
| 20260504210229 | 27 | 360 | 12.9 | 33.8 | 0.00 | 0.00 | 0.00 | 59 | 1011.4 |
| 20260504210129 | 27 | 360 | 12.9 | 33.8 | 0.00 | 0.00 | 0.00 | 59 | 1011.6 |
| 20260504210035 | 27 | 360 | 14.5 | 33.8 | 0.00 | 0.00 | 0.00 | 60 | 1011.6 |
| 20260504205916 | 27 | 360 | 12.9 | 33.8 | 0.00 | 0.00 | 0.00 | 60 | 1011.5 |
| 20260504205817 | 27 | 360 | 11.3 | 30.6 | 0.00 | 0.00 | 0.00 | 60 | 1011.6 |
| 20260504205717 | 27 | 360 | 8.0 | 30.6 | 0.00 | 0.00 | 0.00 | 59 | 1011.6 |
| 20260504205617 | 27 | 360 | 6.4 | 30.6 | 0.00 | 0.00 | 0.00 | 61 | 1011.6 |
| 20260504205517 | 27 | 360 | 9.7 | 30.6 | 0.00 | 0.00 | 0.00 | 61 | 1011.6 |
| 20260504205421 | 27 | 242 | 11.3 | 30.6 | 0.00 | 0.00 | 0.00 | 63 | 1011.6 |
| 20260504205322 | 27 | 360 | 12.9 | 30.6 | 0.00 | 0.00 | 0.00 | 60 | 1011.6 |
| 20260504205242 | 27 | 360 | 12.9 | 38.6 | 0.00 | 0.00 | 0.00 | 60 | 1011.7 |
| 20260504205122 | 27 | 360 | 11.3 | 38.6 | 0.00 | 0.00 | 0.00 | 59 | 1011.6 |
| 20260504205044 | 27 | 360 | 9.7 | 38.6 | 0.00 | 0.00 | 0.00 | 58 | 1011.7 |
| 20260504204922 | 27 | 360 | 9.7 | 38.6 | 0.00 | 0.00 | 0.00 | 59 | 1011.7 |
| 20260504204823 | 27 | 360 | 9.7 | 38.6 | 0.00 | 0.00 | 0.00 | 59 | 1011.7 |
| 20260504204723 | 27 | 360 | 12.9 | 38.6 | 0.00 | 0.00 | 0.00 | 60 | 1011.6 |
| 20260504204628 | 27 | 360 | 16.1 | 38.6 | 0.00 | 0.00 | 0.00 | 61 | 1011.6 |
| 20260504204528 | 27 | 360 | 19.3 | 38.6 | 0.00 | 0.00 | 0.00 | 61 | 1011.7 |
| 20260504204429 | 27 | 360 | 20.9 | 37.0 | 0.00 | 0.00 | 0.00 | 60 | 1011.6 |
| 20260504204330 | 27 | 360 | 17.7 | 37.0 | 0.00 | 0.00 | 0.00 | 60 | 1011.6 |
| 20260504204230 | 27 | 360 | 14.5 | 30.6 | 0.00 | 0.00 | 0.00 | 60 | 1011.6 |
| 20260504204130 | 27 | 360 | 12.9 | 30.6 | 0.00 | 0.00 | 0.00 | 60 | 1011.7 |
| 20260504204034 | 27 | 360 | 14.5 | 30.6 | 0.00 | 0.00 | 0.00 | 60 | 1011.7 |
| 20260504203955 | 27 | 360 | 17.7 | 30.6 | 0.00 | 0.00 | 0.00 | 61 | 1011.8 |
| 20260504203834 | 27 | 360 | 19.3 | 32.2 | 0.00 | 0.00 | 0.00 | 61 | 1011.7 |
| 20260504203734 | 27 | 360 | 17.7 | 32.2 | 0.00 | 0.00 | 0.00 | 61 | 1011.7 |
| 20260504203635 | 27 | 360 | 17.7 | 32.2 | 0.00 | 0.00 | 0.00 | 60 | 1011.8 |
| 20260504203535 | 27 | 360 | 16.1 | 35.4 | 0.00 | 0.00 | 0.00 | 61 | 1011.8 |
| 20260504203436 | 27 | 360 | 16.1 | 35.4 | 0.00 | 0.00 | 0.00 | 61 | 1011.8 |
| 20260504203339 | 27 | 360 | 16.1 | 41.8 | 0.00 | 0.00 | 0.00 | 60 | 1012.0 |
| 20260504203219 | 27 | 360 | 16.1 | 41.8 | 0.00 | 0.00 | 0.00 | 60 | 1012.0 |
| 20260504203120 | 27 | 360 | 16.1 | 41.8 | 0.00 | 0.00 | 0.00 | 60 | 1012.0 |
| 20260504203021 | 27 | 360 | 17.7 | 41.8 | 0.00 | 0.00 | 0.00 | 60 | 1012.1 |
| 20260504202943 | 27 | 360 | 19.3 | 41.8 | 0.00 | 0.00 | 0.00 | 60 | 1012.1 |
| 20260504202823 | 27 | 360 | 19.3 | 41.8 | 0.00 | 0.00 | 0.00 | 60 | 1012.0 |
| 20260504202742 | 27 | 360 | 19.3 | 41.8 | 0.00 | 0.00 | 0.00 | 60 | 1012.0 |
| 20260504202622 | 27 | 360 | 17.7 | 41.8 | 0.00 | 0.00 | 0.00 | 60 | 1012.1 |
| 20260504202526 | 27 | 360 | 16.1 | 41.8 | 0.00 | 0.00 | 0.00 | 60 | 1012.1 |
| 20260504202446 | 27 | 360 | 12.9 | 41.8 | 0.00 | 0.00 | 0.00 | 60 | 1012.1 |
| 20260504202326 | 27 | 360 | 16.1 | 41.8 | 0.00 | 0.00 | 0.00 | 60 | 1012.1 |
| 20260504202227 | 27 | 360 | 19.3 | 41.8 | 0.00 | 0.00 | 0.00 | 60 | 1012.1 |
| 20260504202127 | 27 | 360 | 19.3 | 41.8 | 0.00 | 0.00 | 0.00 | 60 | 1012.2 |
| 20260504202048 | 27 | 360 | 17.7 | 41.8 | 0.00 | 0.00 | 0.00 | 60 | 1012.1 |
| 20260504201927 | 27 | 360 | 17.7 | 41.8 | 0.00 | 0.00 | 0.00 | 60 | 1012.3 |
| 20260504201831 | 27 | 360 | 12.9 | 37.0 | 0.00 | 0.00 | 0.00 | 60 | 1012.0 |
| 20260504201732 | 27 | 360 | 9.7 | 32.2 | 0.00 | 0.00 | 0.00 | 61 | 1012.2 |
| 20260504201632 | 27 | 360 | 11.3 | 32.2 | 0.00 | 0.00 | 0.00 | 61 | 1012.2 |
| 20260504201553 | 27 | 360 | 12.9 | 32.2 | 0.00 | 0.00 | 0.00 | 61 | 1012.2 |
| 20260504201433 | 27 | 360 | 12.9 | 32.2 | 0.00 | 0.00 | 0.00 | 61 | 1012.2 |
| 20260504201334 | 27 | 360 | 11.3 | 32.2 | 0.00 | 0.00 | 0.00 | 61 | 1012.2 |
| 20260504201254 | 27 | 360 | 12.9 | 32.2 | 0.00 | 0.00 | 0.00 | 60 | 1012.2 |
| 20260504201117 | 27 | 360 | 12.9 | 32.2 | 0.00 | 0.00 | 0.00 | 61 | 1012.2 |
| 20260504201019 | 27 | 360 | 14.5 | 32.2 | 0.00 | 0.00 | 0.00 | 61 | 1012.3 |
| 20260504200918 | 27 | 360 | 14.5 | 35.4 | 0.00 | 0.00 | 0.00 | 62 | 1012.4 |
| 20260504200819 | 26 | 360 | 16.1 | 35.4 | 0.00 | 0.00 | 0.00 | 61 | 1012.3 |
| 20260504200719 | 26 | 360 | 17.7 | 35.4 | 0.00 | 0.00 | 0.00 | 62 | 1012.4 |
| 20260504200619 | 26 | 360 | 16.1 | 35.4 | 0.00 | 0.00 | 0.00 | 62 | 1012.5 |
| 20260504200520 | 26 | 360 | 16.1 | 35.4 | 0.00 | 0.00 | 0.00 | 61 | 1012.5 |
| 20260504200440 | 26 | 360 | 14.5 | 35.4 | 0.00 | 0.00 | 0.00 | 60 | 1012.4 |
| 20260504200324 | 26 | 360 | 14.5 | 35.4 | 0.00 | 0.00 | 0.00 | 60 | 1012.4 |
| 20260504200225 | 27 | 360 | 12.9 | 35.4 | 0.00 | 0.00 | 0.00 | 60 | 1012.5 |
| 20260504200125 | 27 | 360 | 14.5 | 35.4 | 0.00 | 0.00 | 0.00 | 61 | 1012.5 |
| 20260504200025 | 27 | 360 | 11.3 | 27.4 | 0.00 | 0.00 | 0.00 | 61 | 1012.5 |
| 20260504195927 | 27 | 360 | 11.3 | 32.2 | 0.00 | 0.00 | 0.00 | 61 | 1012.5 |
| 20260504195827 | 27 | 360 | 11.3 | 32.2 | 0.00 | 0.00 | 0.00 | 61 | 1012.4 |
| 20260504195732 | 27 | 360 | 11.3 | 32.2 | 0.00 | 0.00 | 0.00 | 61 | 1012.5 |
| 20260504195631 | 26 | 360 | 9.7 | 32.2 | 0.00 | 0.00 | 0.00 | 61 | 1012.5 |
| 20260504195532 | 26 | 360 | 11.3 | 32.2 | 0.00 | 0.00 | 0.00 | 62 | 1012.6 |
| 20260504195432 | 26 | 360 | 12.9 | 32.2 | 0.00 | 0.00 | 0.00 | 62 | 1012.5 |
| 20260504195331 | 26 | 360 | 12.9 | 32.2 | 0.00 | 0.00 | 0.00 | 62 | 1012.6 |
| 20260504195232 | 26 | 360 | 12.9 | 32.2 | 0.00 | 0.00 | 0.00 | 61 | 1012.6 |
| 20260504195132 | 26 | 360 | 12.9 | 32.2 | 0.00 | 0.00 | 0.00 | 60 | 1012.7 |
| 20260504195017 | 26 | 360 | 11.3 | 29.0 | 0.00 | 0.00 | 0.00 | 61 | 1012.8 |
| 20260504194916 | 26 | 360 | 9.7 | 40.2 | 0.00 | 0.00 | 0.00 | 62 | 1012.7 |
| 20260504194816 | 26 | 360 | 9.7 | 40.2 | 0.00 | 0.00 | 0.00 | 62 | 1012.8 |
| 20260504194717 | 26 | 360 | 11.3 | 40.2 | 0.00 | 0.00 | 0.00 | 62 | 1012.8 |
| 20260504194618 | 26 | 360 | 9.7 | 40.2 | 0.00 | 0.00 | 0.00 | 62 | 1012.9 |
| 20260504194538 | 26 | 360 | 11.3 | 40.2 | 0.00 | 0.00 | 0.00 | 62 | 1012.8 |
| 20260504194418 | 26 | 360 | 14.5 | 40.2 | 0.00 | 0.00 | 0.00 | 61 | 1012.9 |
| 20260504194339 | 26 | 360 | 16.1 | 40.2 | 0.00 | 0.00 | 0.00 | 62 | 1012.8 |
| 20260504194223 | 26 | 360 | 19.3 | 40.2 | 0.00 | 0.00 | 0.00 | 62 | 1012.8 |
| 20260504194123 | 26 | 360 | 24.1 | 40.2 | 0.00 | 0.00 | 0.00 | 63 | 1012.9 |
| 20260504194023 | 26 | 360 | 22.5 | 40.2 | 0.00 | 0.00 | 0.00 | 63 | 1012.8 |
| 20260504193924 | 26 | 360 | 19.3 | 33.8 | 0.00 | 0.00 | 0.00 | 62 | 1012.7 |
| 20260504193825 | 26 | 360 | 19.3 | 32.2 | 0.00 | 0.00 | 0.00 | 62 | 1012.8 |
| 20260504193725 | 26 | 360 | 17.7 | 30.6 | 0.00 | 0.00 | 0.00 | 62 | 1012.8 |
| 20260504193630 | 26 | 360 | 14.5 | 30.6 | 0.00 | 0.00 | 0.00 | 62 | 1012.8 |
| 20260504193530 | 26 | 360 | 12.9 | 30.6 | 0.00 | 0.00 | 0.00 | 62 | 1012.8 |
| 20260504193431 | 26 | 360 | 12.9 | 29.0 | 0.00 | 0.00 | 0.00 | 62 | 1012.8 |
| 20260504193329 | 26 | 360 | 11.3 | 29.0 | 0.00 | 0.00 | 0.00 | 62 | 1012.9 |
| 20260504193250 | 26 | 360 | 11.3 | 29.0 | 0.00 | 0.00 | 0.00 | 62 | 1012.9 |
| 20260504193130 | 26 | 360 | 11.3 | 29.0 | 0.00 | 0.00 | 0.00 | 62 | 1013.0 |
| 20260504193030 | 26 | 360 | 11.3 | 29.0 | 0.00 | 0.00 | 0.00 | 62 | 1013.0 |
| 20260504192951 | 26 | 360 | 11.3 | 29.0 | 0.00 | 0.00 | 0.00 | 62 | 1013.1 |
| 20260504192835 | 26 | 360 | 12.9 | 27.4 | 0.00 | 0.00 | 0.00 | 62 | 1013.1 |
| 20260504192737 | 26 | 360 | 12.9 | 29.0 | 0.00 | 0.00 | 0.00 | 61 | 1013.0 |
| 20260504192656 | 26 | 360 | 12.9 | 29.0 | 0.00 | 0.00 | 0.00 | 61 | 1013.1 |
| 20260504192534 | 26 | 360 | 12.9 | 29.0 | 0.00 | 0.00 | 0.00 | 61 | 1013.1 |
| 20260504192433 | 27 | 360 | 11.3 | 32.2 | 0.00 | 0.00 | 0.00 | 61 | 1013.1 |
| 20260504192334 | 26 | 360 | 12.9 | 32.2 | 0.00 | 0.00 | 0.00 | 61 | 1013.1 |
| 20260504192235 | 26 | 360 | 12.9 | 32.2 | 0.00 | 0.00 | 0.00 | 61 | 1013.2 |
| 20260504192119 | 27 | 360 | 12.9 | 32.2 | 0.00 | 0.00 | 0.00 | 61 | 1013.1 |
| 20260504192019 | 27 | 360 | 14.5 | 32.2 | 0.00 | 0.00 | 0.00 | 61 | 1013.1 |
| 20260504191919 | 26 | 360 | 14.5 | 32.2 | 0.00 | 0.00 | 0.00 | 60 | 1013.2 |
| 20260504191819 | 26 | 360 | 12.9 | 32.2 | 0.00 | 0.00 | 0.00 | 60 | 1013.2 |
| 20260504191720 | 26 | 360 | 11.3 | 30.6 | 0.00 | 0.00 | 0.00 | 59 | 1013.2 |
| 20260504191620 | 27 | 360 | 11.3 | 30.6 | 0.00 | 0.00 | 0.00 | 59 | 1013.2 |
| 20260504191521 | 27 | 360 | 8.0 | 29.0 | 0.00 | 0.00 | 0.00 | 60 | 1013.3 |
| 20260504191426 | 27 | 360 | 9.7 | 22.5 | 0.00 | 0.00 | 0.00 | 61 | 1013.3 |
| 20260504191327 | 27 | 360 | 9.7 | 22.5 | 0.00 | 0.00 | 0.00 | 60 | 1013.3 |
| 20260504191247 | 27 | 360 | 9.7 | 22.5 | 0.00 | 0.00 | 0.00 | 60 | 1013.4 |
| 20260504191127 | 27 | 360 | 9.7 | 24.1 | 0.00 | 0.00 | 0.00 | 60 | 1013.4 |
| 20260504191027 | 27 | 360 | 11.3 | 24.1 | 0.00 | 0.00 | 0.00 | 61 | 1013.3 |
| 20260504190928 | 26 | 360 | 8.0 | 24.1 | 0.00 | 0.00 | 0.00 | 62 | 1013.4 |
| 20260504190848 | 26 | 360 | 9.7 | 27.4 | 0.00 | 0.00 | 0.00 | 62 | 1013.4 |
| 20260504190727 | 26 | 360 | 8.0 | 27.4 | 0.00 | 0.00 | 0.00 | 63 | 1013.4 |
| 20260504190632 | 26 | 360 | 9.7 | 27.4 | 0.00 | 0.00 | 0.00 | 63 | 1013.5 |
| 20260504190532 | 26 | 360 | 9.7 | 27.4 | 0.00 | 0.00 | 0.00 | 63 | 1013.4 |
| 20260504190453 | 26 | 360 | 12.9 | 27.4 | 0.00 | 0.00 | 0.00 | 62 | 1013.5 |
| 20260504190332 | 25 | 360 | 12.9 | 30.6 | 0.00 | 0.00 | 0.00 | 62 | 1013.5 |
| 20260504190253 | 25 | 360 | 12.9 | 30.6 | 0.00 | 0.00 | 0.00 | 62 | 1013.5 |
| 20260504190152 | 26 | 360 | 11.3 | 30.6 | 0.00 | 0.00 | 0.00 | 62 | 1013.5 |
| 20260504190031 | 26 | 360 | 11.3 | 30.6 | 0.00 | 0.00 | 0.00 | 61 | 1013.5 |
| 20260504185916 | 26 | 360 | 9.7 | 30.6 | 0.00 | 0.00 | 0.00 | 62 | 1013.5 |
| 20260504185818 | 26 | 360 | 12.9 | 30.6 | 0.00 | 0.00 | 0.00 | 61 | 1013.5 |
| 20260504185718 | 26 | 360 | 12.9 | 30.6 | 0.00 | 0.00 | 0.00 | 60 | 1013.5 |
| 20260504185618 | 26 | 360 | 12.9 | 30.6 | 0.00 | 0.00 | 0.00 | 60 | 1013.5 |
| 20260504185538 | 26 | 360 | 14.5 | 30.6 | 0.00 | 0.00 | 0.00 | 62 | 1013.5 |
| 20260504185418 | 26 | 360 | 12.9 | 30.6 | 0.00 | 0.00 | 0.00 | 62 | 1013.5 |
| 20260504185319 | 26 | 360 | 9.7 | 29.0 | 0.00 | 0.00 | 0.00 | 62 | 1013.5 |
| 20260504185238 | 26 | 360 | 11.3 | 27.4 | 0.00 | 0.00 | 0.00 | 62 | 1013.5 |
| 20260504185122 | 26 | 360 | 9.7 | 27.4 | 0.00 | 0.00 | 0.00 | 62 | 1013.6 |
| 20260504185022 | 26 | 360 | 9.7 | 24.1 | 0.00 | 0.00 | 0.00 | 62 | 1013.5 |
| 20260504184923 | 26 | 360 | 9.7 | 24.1 | 0.00 | 0.00 | 0.00 | 62 | 1013.5 |
| 20260504184823 | 26 | 360 | 9.7 | 24.1 | 0.00 | 0.00 | 0.00 | 62 | 1013.4 |
| 20260504184723 | 26 | 360 | 8.0 | 27.4 | 0.00 | 0.00 | 0.00 | 62 | 1013.5 |
| 20260504184624 | 26 | 360 | 8.0 | 27.4 | 0.00 | 0.00 | 0.00 | 62 | 1013.5 |
| 20260504184528 | 26 | 360 | 8.0 | 27.4 | 0.00 | 0.00 | 0.00 | 63 | 1013.5 |
| 20260504184429 | 26 | 360 | 9.7 | 27.4 | 0.00 | 0.00 | 0.00 | 63 | 1013.5 |
| 20260504184329 | 26 | 360 | 9.7 | 33.8 | 0.00 | 0.00 | 0.00 | 63 | 1013.5 |
| 20260504184229 | 26 | 360 | 11.3 | 33.8 | 0.00 | 0.00 | 0.00 | 63 | 1013.5 |
| 20260504184149 | 25 | 360 | 11.3 | 33.8 | 0.00 | 0.00 | 0.00 | 63 | 1013.5 |
| 20260504184029 | 26 | 360 | 9.7 | 33.8 | 0.00 | 0.00 | 0.00 | 63 | 1013.7 |
| 20260504183930 | 26 | 360 | 9.7 | 33.8 | 0.00 | 0.00 | 0.00 | 63 | 1013.7 |
| 20260504183834 | 26 | 360 | 9.7 | 33.8 | 0.00 | 0.00 | 0.00 | 63 | 1013.8 |
| 20260504183735 | 25 | 360 | 9.7 | 33.8 | 0.00 | 0.00 | 0.00 | 64 | 1013.7 |
| 20260504183616 | 25 | 360 | 12.9 | 33.8 | 0.00 | 0.00 | 0.00 | 64 | 1013.7 |
| 20260504183536 | 25 | 360 | 14.5 | 33.8 | 0.00 | 0.00 | 0.00 | 65 | 1013.7 |
| 20260504183436 | 25 | 360 | 17.7 | 33.8 | 0.00 | 0.00 | 0.00 | 64 | 1013.9 |
| 20260504183316 | 25 | 360 | 16.1 | 30.6 | 0.00 | 0.00 | 0.00 | 64 | 1013.8 |
| 20260504183216 | 25 | 360 | 12.9 | 30.6 | 0.00 | 0.00 | 0.00 | 63 | 1013.8 |
| 20260504183121 | 25 | 360 | 11.3 | 30.6 | 0.00 | 0.00 | 0.00 | 63 | 1013.8 |
| 20260504183021 | 25 | 360 | 11.3 | 30.6 | 0.00 | 0.00 | 0.00 | 65 | 1013.9 |
| 20260504182942 | 25 | 360 | 9.7 | 30.6 | 0.00 | 0.00 | 0.00 | 64 | 1013.8 |
| 20260504182823 | 25 | 360 | 11.3 | 33.8 | 0.00 | 0.00 | 0.00 | 64 | 1014.0 |
| 20260504182721 | 25 | 360 | 12.9 | 33.8 | 0.00 | 0.00 | 0.00 | 64 | 1014.0 |
| 20260504182623 | 25 | 360 | 14.5 | 33.8 | 0.00 | 0.00 | 0.00 | 64 | 1014.0 |
| 20260504182523 | 25 | 360 | 12.9 | 33.8 | 0.00 | 0.00 | 0.00 | 64 | 1014.0 |
| 20260504182428 | 25 | 360 | 16.1 | 33.8 | 0.00 | 0.00 | 0.00 | 65 | 1014.0 |
| 20260504182328 | 25 | 360 | 16.1 | 33.8 | 0.00 | 0.00 | 0.00 | 65 | 1014.1 |
| 20260504182227 | 25 | 360 | 16.1 | 38.6 | 0.00 | 0.00 | 0.00 | 65 | 1014.0 |
| 20260504182127 | 25 | 360 | 16.1 | 38.6 | 0.00 | 0.00 | 0.00 | 65 | 1014.1 |
| 20260504182049 | 25 | 360 | 17.7 | 38.6 | 0.00 | 0.00 | 0.00 | 64 | 1014.0 |
| 20260504181927 | 25 | 360 | 16.1 | 38.6 | 0.00 | 0.00 | 0.00 | 64 | 1014.0 |
| 20260504181827 | 25 | 360 | 14.5 | 38.6 | 0.00 | 0.00 | 0.00 | 64 | 1014.0 |
| 20260504181728 | 25 | 360 | 16.1 | 38.6 | 0.00 | 0.00 | 0.00 | 65 | 1014.0 |
| 20260504181633 | 25 | 360 | 16.1 | 38.6 | 0.00 | 0.00 | 0.00 | 64 | 1014.2 |
| 20260504181533 | 25 | 360 | 14.5 | 38.6 | 0.00 | 0.00 | 0.00 | 65 | 1014.1 |
| 20260504181434 | 25 | 360 | 12.9 | 38.6 | 0.00 | 0.00 | 0.00 | 64 | 1014.1 |
| 20260504181334 | 25 | 360 | 12.9 | 37.0 | 0.00 | 0.00 | 0.00 | 64 | 1014.2 |
| 20260504181234 | 25 | 360 | 11.3 | 33.8 | 0.00 | 0.00 | 0.00 | 63 | 1014.1 |
| 20260504181135 | 25 | 360 | 11.3 | 33.8 | 0.00 | 0.00 | 0.00 | 63 | 1014.2 |
| 20260504181019 | 25 | 360 | 9.7 | 33.8 | 0.00 | 0.00 | 0.00 | 65 | 1014.2 |
| 20260504180940 | 25 | 360 | 9.7 | 33.8 | 0.00 | 0.00 | 0.00 | 65 | 1014.1 |
| 20260504180820 | 25 | 360 | 9.7 | 33.8 | 0.00 | 0.00 | 0.00 | 63 | 1014.1 |
| 20260504180719 | 25 | 360 | 8.0 | 33.8 | 0.00 | 0.00 | 0.00 | 64 | 1014.1 |
| 20260504180620 | 25 | 360 | 8.0 | 29.0 | 0.00 | 0.00 | 0.00 | 65 | 1014.1 |
| 20260504180520 | 25 | 360 | 9.7 | 29.0 | 0.00 | 0.00 | 0.00 | 65 | 1014.1 |
| 20260504180421 | 25 | 360 | 12.9 | 29.0 | 0.00 | 0.00 | 0.00 | 66 | 1014.2 |
| 20260504180325 | 25 | 360 | 14.5 | 29.0 | 0.00 | 0.00 | 0.00 | 65 | 1014.1 |
| 20260504180225 | 25 | 360 | 14.5 | 29.0 | 0.00 | 0.00 | 0.00 | 65 | 1014.1 |
| 20260504180125 | 25 | 360 | 12.9 | 29.0 | 0.00 | 0.00 | 0.00 | 65 | 1014.1 |
| 20260504180026 | 25 | 360 | 11.3 | 30.6 | 0.00 | 0.00 | 0.00 | 65 | 1014.1 |
| 20260504175948 | 25 | 360 | 9.7 | 30.6 | 0.00 | 0.00 | 0.00 | 67 | 1014.2 |
| 20260504175827 | 25 | 360 | 9.7 | 30.6 | 0.00 | 0.00 | 0.00 | 67 | 1014.1 |
| 20260504175729 | 25 | 360 | 8.0 | 30.6 | 0.00 | 0.00 | 0.00 | 67 | 1014.1 |
| 20260504175631 | 25 | 360 | 11.3 | 30.6 | 0.00 | 0.00 | 0.00 | 66 | 1014.1 |
| 20260504175531 | 25 | 360 | 9.7 | 30.6 | 0.00 | 0.00 | 0.00 | 67 | 1014.1 |
| 20260504175432 | 24 | 360 | 9.7 | 30.6 | 0.00 | 0.00 | 0.00 | 67 | 1014.2 |
| 20260504175331 | 24 | 360 | 8.0 | 30.6 | 0.00 | 0.00 | 0.00 | 67 | 1014.2 |
| 20260504175233 | 24 | 360 | 8.0 | 30.6 | 0.00 | 0.00 | 0.00 | 67 | 1014.2 |
| 20260504175134 | 24 | 360 | 6.4 | 24.1 | 0.00 | 0.00 | 0.00 | 67 | 1014.2 |
| 20260504175039 | 24 | 360 | 9.7 | 24.1 | 0.00 | 0.00 | 0.00 | 67 | 1014.3 |
| 20260504174918 | 24 | 360 | 11.3 | 24.1 | 0.00 | 0.00 | 0.00 | 68 | 1014.3 |
| 20260504174838 | 24 | 360 | 11.3 | 24.1 | 0.00 | 0.00 | 0.00 | 68 | 1014.3 |
| 20260504174720 | 24 | 360 | 11.3 | 24.1 | 0.00 | 0.00 | 0.00 | 68 | 1014.3 |
| 20260504174620 | 23 | 360 | 9.7 | 24.1 | 0.00 | 0.00 | 0.00 | 67 | 1014.3 |
| 20260504174521 | 24 | 360 | 8.0 | 24.1 | 0.00 | 0.00 | 0.00 | 67 | 1014.3 |
| 20260504174421 | 24 | 360 | 8.0 | 25.7 | 0.00 | 0.00 | 0.00 | 67 | 1014.3 |
| 20260504174326 | 24 | 360 | 8.0 | 25.7 | 0.00 | 0.00 | 0.00 | 67 | 1014.3 |
| 20260504174226 | 24 | 360 | 6.4 | 25.7 | 0.00 | 0.00 | 0.00 | 67 | 1014.3 |
| 20260504174126 | 24 | 360 | 6.4 | 25.7 | 0.00 | 0.00 | 0.00 | 66 | 1014.3 |
| 20260504174027 | 24 | 360 | 8.0 | 25.7 | 0.00 | 0.00 | 0.00 | 67 | 1014.4 |
| 20260504173926 | 24 | 360 | 8.0 | 27.4 | 0.00 | 0.00 | 0.00 | 67 | 1014.4 |
| 20260504173826 | 23 | 360 | 8.0 | 27.4 | 0.00 | 0.00 | 0.00 | 67 | 1014.5 |
| 20260504173727 | 23 | 360 | 9.7 | 27.4 | 0.00 | 0.00 | 0.00 | 68 | 1014.7 |
| 20260504173651 | 23 | 360 | 9.7 | 27.4 | 0.00 | 0.00 | 0.00 | 68 | 1014.7 |
| 20260504173530 | 23 | 360 | 9.7 | 27.4 | 0.00 | 0.00 | 0.00 | 67 | 1014.7 |
| 20260504173431 | 23 | 360 | 9.7 | 27.4 | 0.00 | 0.00 | 0.00 | 67 | 1014.8 |
| 20260504173332 | 23 | 360 | 9.7 | 27.4 | 0.00 | 0.00 | 0.00 | 67 | 1014.8 |
| 20260504173251 | 23 | 360 | 9.7 | 27.4 | 0.00 | 0.00 | 0.00 | 67 | 1014.8 |
| 20260504173132 | 23 | 360 | 11.3 | 27.4 | 0.00 | 0.00 | 0.00 | 67 | 1014.9 |
| 20260504173053 | 23 | 360 | 11.3 | 27.4 | 0.00 | 0.00 | 0.00 | 67 | 1014.8 |
| 20260504172916 | 24 | 360 | 12.9 | 25.7 | 0.00 | 0.00 | 0.00 | 67 | 1014.8 |
| 20260504172818 | 24 | 360 | 12.9 | 25.7 | 0.00 | 0.00 | 0.00 | 67 | 1014.8 |
| 20260504172717 | 24 | 360 | 14.5 | 25.7 | 0.00 | 0.00 | 0.00 | 67 | 1015.0 |
| 20260504172639 | 24 | 360 | 12.9 | 25.7 | 0.00 | 0.00 | 0.00 | 67 | 1015.0 |
| 20260504172539 | 24 | 360 | 12.9 | 25.7 | 0.00 | 0.00 | 0.00 | 67 | 1014.9 |
| 20260504172418 | 24 | 360 | 11.3 | 25.7 | 0.00 | 0.00 | 0.00 | 67 | 1014.9 |
| 20260504172318 | 23 | 360 | 9.7 | 25.7 | 0.00 | 0.00 | 0.00 | 67 | 1015.0 |
| 20260504172218 | 24 | 360 | 11.3 | 25.7 | 0.00 | 0.00 | 0.00 | 66 | 1015.0 |
| 20260504172138 | 24 | 360 | 11.3 | 25.7 | 0.00 | 0.00 | 0.00 | 67 | 1015.0 |
| 20260504172023 | 24 | 360 | 9.7 | 25.7 | 0.00 | 0.00 | 0.00 | 66 | 1014.9 |
| 20260504171923 | 24 | 360 | 9.7 | 25.7 | 0.00 | 0.00 | 0.00 | 66 | 1014.9 |
| 20260504171822 | 24 | 360 | 9.7 | 25.7 | 0.00 | 0.00 | 0.00 | 68 | 1015.0 |
| 20260504171743 | 24 | 360 | 8.0 | 25.7 | 0.00 | 0.00 | 0.00 | 68 | 1015.1 |
| 20260504171623 | 24 | 360 | 8.0 | 25.7 | 0.00 | 0.00 | 0.00 | 68 | 1015.0 |
| 20260504171523 | 23 | 360 | 9.7 | 25.7 | 0.00 | 0.00 | 0.00 | 68 | 1015.1 |
| 20260504171423 | 23 | 360 | 9.7 | 27.4 | 0.00 | 0.00 | 0.00 | 68 | 1015.2 |
| 20260504171328 | 23 | 360 | 9.7 | 27.4 | 0.00 | 0.00 | 0.00 | 68 | 1015.2 |
| 20260504171228 | 23 | 360 | 9.7 | 33.8 | 0.00 | 0.00 | 0.00 | 68 | 1015.2 |
| 20260504171129 | 23 | 360 | 8.0 | 33.8 | 0.00 | 0.00 | 0.00 | 69 | 1015.2 |
| 20260504171028 | 23 | 360 | 9.7 | 33.8 | 0.00 | 0.00 | 0.00 | 69 | 1015.2 |
| 20260504170928 | 23 | 360 | 9.7 | 33.8 | 0.00 | 0.00 | 0.00 | 69 | 1015.2 |
| 20260504170828 | 23 | 360 | 9.7 | 33.8 | 0.00 | 0.00 | 0.00 | 69 | 1015.2 |
| 20260504170729 | 23 | 360 | 12.9 | 33.8 | 0.00 | 0.00 | 0.00 | 69 | 1015.2 |
| 20260504170632 | 23 | 360 | 12.9 | 33.8 | 0.00 | 0.00 | 0.00 | 69 | 1015.3 |
| 20260504170533 | 23 | 360 | 14.5 | 33.8 | 0.00 | 0.00 | 0.00 | 69 | 1015.2 |
| 20260504170453 | 23 | 360 | 14.5 | 33.8 | 0.00 | 0.00 | 0.00 | 69 | 1015.2 |
| 20260504170333 | 23 | 360 | 14.5 | 33.8 | 0.00 | 0.00 | 0.00 | 71 | 1015.1 |
| 20260504170232 | 22 | 360 | 14.5 | 33.8 | 0.00 | 0.00 | 0.00 | 71 | 1015.1 |
| 20260504170133 | 22 | 360 | 14.5 | 33.8 | 0.00 | 0.00 | 0.00 | 71 | 1015.1 |
| 20260504160419 | 22 | 360 | 11.3 | 27.4 | 0.00 | 0.00 | 0.00 | 73 | 1015.7 |
| 20260504160320 | 22 | 360 | 9.7 | 27.4 | 0.00 | 0.00 | 0.00 | 73 | 1015.6 |
| 20260504160221 | 22 | 360 | 9.7 | 27.4 | 0.00 | 0.00 | 0.00 | 73 | 1015.6 |
| 20260504160121 | 22 | 360 | 11.3 | 27.4 | 0.00 | 0.00 | 0.00 | 73 | 1015.8 |
| 20260504151133 | 20 | 360 | 11.3 | 32.2 | 0.00 | 0.00 | 0.00 | 75 | 1015.9 |
| 20260504151033 | 20 | 360 | 12.9 | 32.2 | 0.00 | 0.00 | 0.00 | 75 | 1016.0 |
| 20260504150934 | 20 | 360 | 12.9 | 32.2 | 0.00 | 0.00 | 0.00 | 74 | 1016.0 |
| 20260504150835 | 20 | 360 | 12.9 | 32.2 | 0.00 | 0.00 | 0.00 | 74 | 1016.0 |
| 20260504150734 | 20 | 360 | 11.3 | 32.2 | 0.00 | 0.00 | 0.00 | 74 | 1016.0 |
| 20260504150619 | 20 | 360 | 14.5 | 32.2 | 0.00 | 0.00 | 0.00 | 75 | 1016.0 |
| 20260504150520 | 20 | 360 | 14.5 | 32.2 | 0.00 | 0.00 | 0.00 | 75 | 1016.0 |
| 20260504150420 | 20 | 360 | 12.9 | 30.6 | 0.00 | 0.00 | 0.00 | 74 | 1016.0 |
| 20260504150340 | 20 | 360 | 12.9 | 30.6 | 0.00 | 0.00 | 0.00 | 74 | 1016.0 |
| 20260504150220 | 20 | 360 | 12.9 | 30.6 | 0.00 | 0.00 | 0.00 | 74 | 1016.0 |
| 20260504150142 | 20 | 360 | 11.3 | 30.6 | 0.00 | 0.00 | 0.00 | 74 | 1016.0 |
| 20260504141321 | 19 | 360 | 14.5 | 33.8 | 0.00 | 0.00 | 0.00 | 74 | 1015.8 |
| 20260504141223 | 19 | 360 | 14.5 | 33.8 | 0.00 | 0.00 | 0.00 | 74 | 1015.7 |
| 20260504141127 | 19 | 360 | 12.9 | 33.8 | 0.00 | 0.00 | 0.00 | 74 | 1015.7 |
| 20260504141028 | 19 | 360 | 14.5 | 33.8 | 0.00 | 0.00 | 0.00 | 75 | 1015.8 |
| 20260504140927 | 19 | 360 | 14.5 | 33.8 | 0.00 | 0.00 | 0.00 | 75 | 1015.8 |
| 20260504140828 | 19 | 360 | 16.1 | 33.8 | 0.00 | 0.00 | 0.00 | 75 | 1015.8 |
| 20260504140727 | 19 | 360 | 16.1 | 33.8 | 0.00 | 0.00 | 0.00 | 75 | 1015.8 |
| 20260504140648 | 19 | 360 | 16.1 | 33.8 | 0.00 | 0.00 | 0.00 | 75 | 1015.8 |
| 20260504140526 | 19 | 360 | 16.1 | 33.8 | 0.00 | 0.00 | 0.00 | 75 | 1015.9 |
| 20260504140427 | 19 | 360 | 16.1 | 33.8 | 0.00 | 0.00 | 0.00 | 75 | 1015.9 |
| 20260504140330 | 19 | 360 | 16.1 | 33.8 | 0.00 | 0.00 | 0.00 | 75 | 1016.0 |
| 20260504140231 | 19 | 360 | 14.5 | 33.8 | 0.00 | 0.00 | 0.00 | 75 | 1016.0 |
| 20260504140130 | 19 | 360 | 12.9 | 25.7 | 0.00 | 0.00 | 0.00 | 74 | 1016.0 |
| 20260504130718 | 17 | 360 | 11.3 | 25.7 | 0.00 | 0.00 | 0.00 | 79 | 1015.8 |
| 20260504130618 | 17 | 360 | 9.7 | 25.7 | 0.00 | 0.00 | 0.00 | 79 | 1015.7 |
| 20260504130519 | 17 | 360 | 9.7 | 25.7 | 0.00 | 0.00 | 0.00 | 79 | 1015.7 |
| 20260504130419 | 17 | 360 | 9.7 | 25.7 | 0.00 | 0.00 | 0.00 | 79 | 1015.6 |
| 20260504130320 | 17 | 360 | 11.3 | 25.7 | 0.00 | 0.00 | 0.00 | 79 | 1015.7 |
| 20260504130221 | 17 | 360 | 12.9 | 25.7 | 0.00 | 0.00 | 0.00 | 79 | 1015.8 |
| 20260504130124 | 17 | 360 | 12.9 | 25.7 | 0.00 | 0.00 | 0.00 | 79 | 1015.6 |
| 20260504120225 | 15 | 360 | 6.4 | 12.9 | 0.00 | 0.00 | 0.00 | 84 | 1015.1 |
| 20260504120146 | 15 | 360 | 6.4 | 12.9 | 0.00 | 0.00 | 0.00 | 84 | 1015.0 |
| 20260504110629 | 15 | 360 | 6.4 | 12.9 | 0.00 | 0.00 | 0.00 | 83 | 1015.4 |
| 20260504110530 | 15 | 360 | 6.4 | 12.9 | 0.00 | 0.00 | 0.00 | 83 | 1015.5 |
| 20260504110430 | 15 | 360 | 6.4 | 12.9 | 0.00 | 0.00 | 0.00 | 83 | 1015.5 |
| 20260504110331 | 15 | 360 | 6.4 | 12.9 | 0.00 | 0.00 | 0.00 | 83 | 1015.5 |
| 20260504110236 | 15 | 360 | 6.4 | 12.9 | 0.00 | 0.00 | 0.00 | 83 | 1015.5 |
| 20260504110117 | 15 | 360 | 6.4 | 12.9 | 0.00 | 0.00 | 0.00 | 84 | 1015.6 |
| 20260504100545 | 15 | 360 | 8.0 | 14.5 | 0.00 | 0.00 | 0.00 | 81 | 1015.5 |
| 20260504100425 | 15 | 360 | 6.4 | 14.5 | 0.00 | 0.00 | 0.00 | 81 | 1015.5 |
| 20260504100327 | 15 | 360 | 6.4 | 14.5 | 0.00 | 0.00 | 0.00 | 81 | 1015.5 |
| 20260504100227 | 15 | 360 | 6.4 | 14.5 | 0.00 | 0.00 | 0.00 | 81 | 1015.5 |
| 20260504100126 | 15 | 360 | 6.4 | 14.5 | 0.00 | 0.00 | 0.00 | 81 | 1015.6 |
| 20260504090126 | 16 | 360 | 6.4 | 16.1 | 0.00 | 0.00 | 0.00 | 78 | 1016.0 |
| 20260504081928 | 16 | 360 | 12.9 | 19.3 | 0.00 | 0.00 | 0.00 | 77 | 1016.0 |
| 20260504081828 | 16 | 360 | 12.9 | 19.3 | 0.00 | 0.00 | 0.00 | 77 | 1016.0 |
| 20260504081729 | 16 | 360 | 12.9 | 19.3 | 0.00 | 0.00 | 0.00 | 77 | 1016.0 |
| 20260504081650 | 16 | 360 | 11.3 | 19.3 | 0.00 | 0.00 | 0.00 | 77 | 1016.0 |
| 20260504081529 | 16 | 360 | 11.3 | 19.3 | 0.00 | 0.00 | 0.00 | 76 | 1016.1 |
| 20260504081434 | 16 | 360 | 11.3 | 20.9 | 0.00 | 0.00 | 0.00 | 76 | 1016.0 |
| 20260504081334 | 17 | 360 | 9.7 | 20.9 | 0.00 | 0.00 | 0.00 | 76 | 1016.2 |
| 20260504081234 | 17 | 360 | 9.7 | 20.9 | 0.00 | 0.00 | 0.00 | 76 | 1016.1 |
| 20260504081135 | 17 | 360 | 9.7 | 20.9 | 0.00 | 0.00 | 0.00 | 76 | 1016.1 |
| 20260504081035 | 17 | 360 | 11.3 | 20.9 | 0.00 | 0.00 | 0.00 | 76 | 1016.1 |
| 20260504080936 | 17 | 360 | 11.3 | 20.9 | 0.00 | 0.00 | 0.00 | 76 | 1016.2 |
| 20260504080819 | 17 | 360 | 11.3 | 20.9 | 0.00 | 0.00 | 0.00 | 76 | 1016.2 |
| 20260504080720 | 17 | 360 | 11.3 | 20.9 | 0.00 | 0.00 | 0.00 | 76 | 1016.2 |
| 20260504080621 | 17 | 360 | 11.3 | 19.3 | 0.00 | 0.00 | 0.00 | 76 | 1016.3 |
| 20260504080520 | 17 | 360 | 11.3 | 19.3 | 0.00 | 0.00 | 0.00 | 76 | 1016.2 |
| 20260504080422 | 17 | 360 | 9.7 | 19.3 | 0.00 | 0.00 | 0.00 | 76 | 1016.2 |
| 20260504080321 | 17 | 360 | 11.3 | 19.3 | 0.00 | 0.00 | 0.00 | 76 | 1016.3 |
| 20260504080222 | 17 | 360 | 9.7 | 19.3 | 0.00 | 0.00 | 0.00 | 76 | 1016.2 |
| 20260504080146 | 17 | 360 | 9.7 | 19.3 | 0.00 | 0.00 | 0.00 | 76 | 1016.2 |
| 20260504070318 | 17 | 360 | 16.1 | 29.0 | 0.00 | 0.00 | 0.00 | 73 | 1016.9 |
| 20260504070219 | 17 | 360 | 14.5 | 27.4 | 0.00 | 0.00 | 0.00 | 73 | 1017.0 |
| 20260504070121 | 17 | 360 | 14.5 | 27.4 | 0.00 | 0.00 | 0.00 | 73 | 1017.0 |
| 20260504060228 | 18 | 360 | 9.7 | 22.5 | 0.00 | 0.00 | 0.00 | 70 | 1017.9 |
| 20260504060149 | 18 | 360 | 11.3 | 22.5 | 0.00 | 0.00 | 0.00 | 70 | 1018.0 |
| 20260504050725 | 18 | 360 | 9.7 | 25.7 | 0.00 | 0.00 | 0.00 | 66 | 1018.3 |
| 20260504050626 | 18 | 360 | 9.7 | 25.7 | 0.00 | 0.00 | 0.00 | 66 | 1018.3 |
| 20260504050527 | 18 | 360 | 9.7 | 25.7 | 0.00 | 0.00 | 0.00 | 66 | 1018.3 |
| 20260504050427 | 18 | 360 | 9.7 | 25.7 | 0.00 | 0.00 | 0.00 | 66 | 1018.2 |
| 20260504050347 | 18 | 360 | 11.3 | 25.7 | 0.00 | 0.00 | 0.00 | 66 | 1018.2 |
| 20260504050229 | 18 | 360 | 11.3 | 25.7 | 0.00 | 0.00 | 0.00 | 66 | 1018.2 |
| 20260504050128 | 18 | 360 | 11.3 | 25.7 | 0.00 | 0.00 | 0.00 | 66 | 1018.3 |
| 20260504045921 | 18 | 360 | 11.3 | 25.7 | 0.00 | 0.00 | 0.00 | 65 | 1018.3 |
| 20260504045823 | 18 | 360 | 11.3 | 24.1 | 0.00 | 0.00 | 0.00 | 65 | 1018.4 |
| 20260504045743 | 18 | 360 | 11.3 | 24.1 | 0.00 | 0.00 | 0.00 | 65 | 1018.3 |
| 20260504045623 | 18 | 360 | 11.3 | 24.1 | 0.00 | 0.00 | 0.00 | 65 | 1018.3 |
| 20260504045523 | 18 | 360 | 11.3 | 25.7 | 0.00 | 0.00 | 0.00 | 65 | 1018.3 |
| 20260504045448 | 18 | 360 | 11.3 | 25.7 | 0.00 | 0.00 | 0.00 | 65 | 1018.3 |
| 20260504045327 | 18 | 360 | 11.3 | 33.8 | 0.00 | 0.00 | 0.00 | 65 | 1018.3 |
| 20260504045228 | 18 | 360 | 11.3 | 33.8 | 0.00 | 0.00 | 0.00 | 65 | 1018.3 |
| 20260504045128 | 18 | 360 | 12.9 | 33.8 | 0.00 | 0.00 | 0.00 | 65 | 1018.2 |
| 20260504045029 | 19 | 360 | 14.5 | 33.8 | 0.00 | 0.00 | 0.00 | 65 | 1018.2 |
| 20260504044929 | 19 | 360 | 14.5 | 33.8 | 0.00 | 0.00 | 0.00 | 65 | 1018.2 |
| 20260504044829 | 19 | 360 | 16.1 | 33.8 | 0.00 | 0.00 | 0.00 | 65 | 1018.2 |
| 20260504044754 | 19 | 360 | 16.1 | 33.8 | 0.00 | 0.00 | 0.00 | 65 | 1018.3 |
| 20260504044653 | 19 | 360 | 16.1 | 33.8 | 0.00 | 0.00 | 0.00 | 65 | 1018.2 |
| 20260504044534 | 19 | 360 | 14.5 | 33.8 | 0.00 | 0.00 | 0.00 | 65 | 1018.3 |
| 20260504044434 | 19 | 360 | 14.5 | 33.8 | 0.00 | 0.00 | 0.00 | 64 | 1018.3 |
| 20260504044334 | 19 | 360 | 16.1 | 33.8 | 0.00 | 0.00 | 0.00 | 64 | 1018.3 |
| 20260504044235 | 19 | 360 | 16.1 | 29.0 | 0.00 | 0.00 | 0.00 | 64 | 1018.2 |
| 20260504044116 | 19 | 360 | 14.5 | 29.0 | 0.00 | 0.00 | 0.00 | 64 | 1018.4 |
| 20260504044021 | 19 | 360 | 16.1 | 29.0 | 0.00 | 0.00 | 0.00 | 64 | 1018.3 |
| 20260504043920 | 19 | 360 | 16.1 | 29.0 | 0.00 | 0.00 | 0.00 | 64 | 1018.3 |
| 20260504043821 | 19 | 360 | 12.9 | 25.7 | 0.00 | 0.00 | 0.00 | 64 | 1018.3 |
| 20260504043722 | 19 | 360 | 12.9 | 25.7 | 0.00 | 0.00 | 0.00 | 64 | 1018.4 |
| 20260504043643 | 19 | 360 | 12.9 | 25.7 | 0.00 | 0.00 | 0.00 | 64 | 1018.4 |
| 20260504043521 | 19 | 360 | 11.3 | 25.7 | 0.00 | 0.00 | 0.00 | 64 | 1018.4 |
| 20260504043422 | 19 | 360 | 12.9 | 25.7 | 0.00 | 0.00 | 0.00 | 63 | 1018.4 |
| 20260504043326 | 19 | 360 | 12.9 | 25.7 | 0.00 | 0.00 | 0.00 | 63 | 1018.4 |
| 20260504043227 | 19 | 360 | 14.5 | 25.7 | 0.00 | 0.00 | 0.00 | 63 | 1018.3 |
| 20260504043128 | 19 | 360 | 14.5 | 25.7 | 0.00 | 0.00 | 0.00 | 63 | 1018.3 |
| 20260504043028 | 19 | 360 | 16.1 | 25.7 | 0.00 | 0.00 | 0.00 | 63 | 1018.3 |
| 20260504042928 | 19 | 360 | 14.5 | 24.1 | 0.00 | 0.00 | 0.00 | 63 | 1018.3 |
| 20260504042829 | 19 | 360 | 14.5 | 24.1 | 0.00 | 0.00 | 0.00 | 63 | 1018.4 |
| 20260504042731 | 19 | 360 | 16.1 | 24.1 | 0.00 | 0.00 | 0.00 | 63 | 1018.3 |
| 20260504042635 | 19 | 360 | 16.1 | 24.1 | 0.00 | 0.00 | 0.00 | 63 | 1018.4 |
| 20260504042535 | 19 | 360 | 16.1 | 25.7 | 0.00 | 0.00 | 0.00 | 63 | 1018.3 |
| 20260504042435 | 19 | 360 | 16.1 | 29.0 | 0.00 | 0.00 | 0.00 | 62 | 1018.4 |
| 20260504042356 | 19 | 360 | 16.1 | 29.0 | 0.00 | 0.00 | 0.00 | 62 | 1018.4 |
| 20260504042216 | 19 | 360 | 14.5 | 29.0 | 0.00 | 0.00 | 0.00 | 62 | 1018.4 |
| 20260504042117 | 19 | 360 | 14.5 | 29.0 | 0.00 | 0.00 | 0.00 | 62 | 1018.3 |
| 20260504042022 | 19 | 360 | 14.5 | 29.0 | 0.00 | 0.00 | 0.00 | 62 | 1018.4 |
| 20260504041922 | 19 | 360 | 14.5 | 29.0 | 0.00 | 0.00 | 0.00 | 62 | 1018.4 |
| 20260504041823 | 19 | 360 | 14.5 | 29.0 | 0.00 | 0.00 | 0.00 | 61 | 1018.4 |
| 20260504041724 | 19 | 360 | 14.5 | 29.0 | 0.00 | 0.00 | 0.00 | 61 | 1018.4 |
| 20260504041624 | 19 | 360 | 14.5 | 29.0 | 0.00 | 0.00 | 0.00 | 61 | 1018.4 |
| 20260504041525 | 19 | 360 | 12.9 | 24.1 | 0.00 | 0.00 | 0.00 | 61 | 1018.4 |
| 20260504041425 | 19 | 360 | 11.3 | 24.1 | 0.00 | 0.00 | 0.00 | 61 | 1018.5 |
| 20260504041330 | 19 | 360 | 9.7 | 24.1 | 0.00 | 0.00 | 0.00 | 61 | 1018.5 |
| 20260504041231 | 19 | 360 | 9.7 | 24.1 | 0.00 | 0.00 | 0.00 | 61 | 1018.4 |
| 20260504041132 | 19 | 360 | 8.0 | 24.1 | 0.00 | 0.00 | 0.00 | 61 | 1018.5 |
| 20260504041034 | 19 | 360 | 6.4 | 24.1 | 0.00 | 0.00 | 0.00 | 61 | 1018.5 |
| 20260504040933 | 19 | 360 | 6.4 | 24.1 | 0.00 | 0.00 | 0.00 | 61 | 1018.5 |
| 20260504040834 | 19 | 360 | 8.0 | 24.1 | 0.00 | 0.00 | 0.00 | 61 | 1018.5 |
| 20260504040738 | 19 | 360 | 9.7 | 24.1 | 0.00 | 0.00 | 0.00 | 60 | 1018.4 |
| 20260504040618 | 19 | 360 | 9.7 | 24.1 | 0.00 | 0.00 | 0.00 | 60 | 1018.4 |
| 20260504040518 | 19 | 360 | 11.3 | 24.1 | 0.00 | 0.00 | 0.00 | 60 | 1018.4 |
| 20260504040419 | 19 | 360 | 11.3 | 24.1 | 0.00 | 0.00 | 0.00 | 60 | 1018.3 |
| 20260504040319 | 19 | 360 | 11.3 | 24.1 | 0.00 | 0.00 | 0.00 | 60 | 1018.4 |
| 20260504040240 | 20 | 360 | 12.9 | 24.1 | 0.00 | 0.00 | 0.00 | 59 | 1018.4 |
| 20260504040120 | 20 | 360 | 12.9 | 24.1 | 0.00 | 0.00 | 0.00 | 59 | 1018.4 |
| 20260504040025 | 20 | 360 | 12.9 | 24.1 | 0.00 | 0.00 | 0.00 | 59 | 1018.4 |
| 20260504035925 | 20 | 360 | 14.5 | 24.1 | 0.00 | 0.00 | 0.00 | 59 | 1018.4 |
| 20260504035825 | 20 | 360 | 12.9 | 24.1 | 0.00 | 0.00 | 0.00 | 59 | 1018.4 |
| 20260504035728 | 20 | 360 | 12.9 | 24.1 | 0.00 | 0.00 | 0.00 | 59 | 1018.4 |
| 20260504035627 | 20 | 360 | 12.9 | 25.7 | 0.00 | 0.00 | 0.00 | 59 | 1018.4 |
| 20260504035546 | 20 | 360 | 12.9 | 25.7 | 0.00 | 0.00 | 0.00 | 59 | 1018.5 |
| 20260504035446 | 20 | 360 | 12.9 | 25.7 | 0.00 | 0.00 | 0.00 | 58 | 1018.5 |
| 20260504035325 | 20 | 360 | 11.3 | 25.7 | 0.00 | 0.00 | 0.00 | 58 | 1018.6 |
| 20260504035229 | 20 | 360 | 12.9 | 25.7 | 0.00 | 0.00 | 0.00 | 58 | 1018.6 |
| 20260504035131 | 20 | 360 | 14.5 | 25.7 | 0.00 | 0.00 | 0.00 | 57 | 1018.5 |
| 20260504035032 | 20 | 360 | 14.5 | 25.7 | 0.00 | 0.00 | 0.00 | 57 | 1018.6 |
| 20260504034933 | 20 | 360 | 12.9 | 25.7 | 0.00 | 0.00 | 0.00 | 57 | 1018.6 |
| 20260504034833 | 20 | 360 | 14.5 | 25.7 | 0.00 | 0.00 | 0.00 | 57 | 1018.6 |
| 20260504034734 | 20 | 360 | 12.9 | 25.7 | 0.00 | 0.00 | 0.00 | 57 | 1018.6 |
| 20260504034618 | 20 | 360 | 11.3 | 24.1 | 0.00 | 0.00 | 0.00 | 57 | 1018.6 |
| 20260504034539 | 20 | 360 | 11.3 | 32.2 | 0.00 | 0.00 | 0.00 | 57 | 1018.6 |
| 20260504034418 | 20 | 360 | 12.9 | 32.2 | 0.00 | 0.00 | 0.00 | 56 | 1018.5 |
| 20260504034319 | 20 | 360 | 11.3 | 32.2 | 0.00 | 0.00 | 0.00 | 56 | 1018.5 |
| 20260504034219 | 20 | 360 | 12.9 | 32.2 | 0.00 | 0.00 | 0.00 | 56 | 1018.4 |
| 20260504034120 | 20 | 360 | 14.5 | 32.2 | 0.00 | 0.00 | 0.00 | 56 | 1018.5 |
| 20260504034020 | 20 | 360 | 14.5 | 32.2 | 0.00 | 0.00 | 0.00 | 56 | 1018.5 |
| 20260504033922 | 20 | 360 | 14.5 | 32.2 | 0.00 | 0.00 | 0.00 | 56 | 1018.5 |
| 20260504033842 | 20 | 360 | 14.5 | 32.2 | 0.00 | 0.00 | 0.00 | 56 | 1018.5 |
| 20260504033743 | 20 | 360 | 12.9 | 32.2 | 0.00 | 0.00 | 0.00 | 55 | 1018.4 |
| 20260504033616 | 20 | 360 | 11.3 | 32.2 | 0.00 | 0.00 | 0.00 | 55 | 1018.5 |
| 20260504033517 | 20 | 360 | 11.3 | 22.5 | 0.00 | 0.00 | 0.00 | 55 | 1018.5 |
| 20260504033418 | 20 | 360 | 11.3 | 22.5 | 0.00 | 0.00 | 0.00 | 55 | 1018.4 |
| 20260504033318 | 20 | 360 | 9.7 | 22.5 | 0.00 | 0.00 | 0.00 | 55 | 1018.5 |
| 20260504033222 | 20 | 360 | 11.3 | 22.5 | 0.00 | 0.00 | 0.00 | 55 | 1018.5 |
| 20260504033123 | 20 | 360 | 11.3 | 22.5 | 0.00 | 0.00 | 0.00 | 55 | 1018.5 |
| 20260504033044 | 20 | 360 | 11.3 | 22.5 | 0.00 | 0.00 | 0.00 | 55 | 1018.5 |
| 20260504032923 | 20 | 360 | 11.3 | 22.5 | 0.00 | 0.00 | 0.00 | 55 | 1018.4 |
| 20260504032825 | 20 | 360 | 11.3 | 22.5 | 0.00 | 0.00 | 0.00 | 55 | 1018.4 |
| 20260504032724 | 20 | 360 | 11.3 | 22.5 | 0.00 | 0.00 | 0.00 | 55 | 1018.4 |
| 20260504032625 | 20 | 360 | 11.3 | 22.5 | 0.00 | 0.00 | 0.00 | 55 | 1018.4 |
| 20260504032530 | 20 | 360 | 11.3 | 17.7 | 0.00 | 0.00 | 0.00 | 55 | 1018.4 |
| 20260504032430 | 20 | 360 | 9.7 | 17.7 | 0.00 | 0.00 | 0.00 | 55 | 1018.4 |
| 20260504032331 | 20 | 360 | 9.7 | 17.7 | 0.00 | 0.00 | 0.00 | 55 | 1018.3 |
| 20260504032230 | 20 | 360 | 9.7 | 17.7 | 0.00 | 0.00 | 0.00 | 55 | 1018.3 |
| 20260504032131 | 20 | 360 | 9.7 | 17.7 | 0.00 | 0.00 | 0.00 | 54 | 1018.4 |
| 20260504032032 | 20 | 360 | 8.0 | 17.7 | 0.00 | 0.00 | 0.00 | 54 | 1018.3 |
| 20260504031954 | 20 | 360 | 8.0 | 14.5 | 0.00 | 0.00 | 0.00 | 55 | 1018.3 |
| 20260504031817 | 20 | 360 | 8.0 | 14.5 | 0.00 | 0.00 | 0.00 | 55 | 1018.2 |
| 20260504031718 | 20 | 360 | 6.4 | 12.9 | 0.00 | 0.00 | 0.00 | 55 | 1018.3 |
| 20260504031637 | 20 | 360 | 6.4 | 12.9 | 0.00 | 0.00 | 0.00 | 55 | 1018.2 |
| 20260504031517 | 20 | 360 | 6.4 | 12.9 | 0.00 | 0.00 | 0.00 | 55 | 1018.2 |
| 20260504031418 | 20 | 360 | 6.4 | 12.9 | 0.00 | 0.00 | 0.00 | 55 | 1018.3 |
| 20260504031318 | 20 | 360 | 6.4 | 12.9 | 0.00 | 0.00 | 0.00 | 54 | 1018.2 |
| 20260504031239 | 20 | 360 | 6.4 | 9.7 | 0.00 | 0.00 | 0.00 | 54 | 1018.2 |
| 20260504031121 | 20 | 360 | 6.4 | 9.7 | 0.00 | 0.00 | 0.00 | 54 | 1018.3 |
| 20260504031022 | 20 | 360 | 6.4 | 9.7 | 0.00 | 0.00 | 0.00 | 54 | 1018.3 |
| 20260504030922 | 20 | 360 | 4.8 | 9.7 | 0.00 | 0.00 | 0.00 | 54 | 1018.4 |
| 20260504030822 | 20 | 360 | 4.8 | 9.7 | 0.00 | 0.00 | 0.00 | 54 | 1018.3 |
| 20260504030722 | 20 | 360 | 4.8 | 9.7 | 0.00 | 0.00 | 0.00 | 54 | 1018.4 |
| 20260504030623 | 20 | 360 | 4.8 | 8.0 | 0.00 | 0.00 | 0.00 | 54 | 1018.3 |
| 20260504030543 | 20 | 360 | 4.8 | 9.7 | 0.00 | 0.00 | 0.00 | 54 | 1018.3 |
| 20260504030427 | 20 | 360 | 4.8 | 9.7 | 0.00 | 0.00 | 0.00 | 54 | 1018.3 |
| 20260504030327 | 20 | 360 | 4.8 | 9.7 | 0.00 | 0.00 | 0.00 | 54 | 1018.3 |
| 20260504030248 | 20 | 360 | 4.8 | 9.7 | 0.00 | 0.00 | 0.00 | 54 | 1018.3 |
| 20260504030128 | 20 | 360 | 4.8 | 9.7 | 0.00 | 0.00 | 0.00 | 54 | 1018.3 |
| 20260504030029 | 20 | 360 | 4.8 | 9.7 | 0.00 | 0.00 | 0.00 | 54 | 1018.3 |
| 20260504025947 | 20 | 360 | 4.8 | 9.7 | 0.00 | 0.00 | 0.00 | 54 | 1018.3 |
| 20260504025826 | 20 | 360 | 4.8 | 9.7 | 0.00 | 0.00 | 0.00 | 54 | 1018.3 |
| 20260504025729 | 20 | 360 | 4.8 | 9.7 | 0.00 | 0.00 | 0.00 | 54 | 1018.3 |
| 20260504025631 | 20 | 360 | 4.8 | 9.7 | 0.00 | 0.00 | 0.00 | 54 | 1018.3 |
| 20260504025552 | 20 | 360 | 4.8 | 9.7 | 0.00 | 0.00 | 0.00 | 54 | 1018.3 |
| 20260504025451 | 20 | 360 | 4.8 | 9.7 | 0.00 | 0.00 | 0.00 | 54 | 1018.3 |
| 20260504025331 | 20 | 360 | 4.8 | 9.7 | 0.00 | 0.00 | 0.00 | 53 | 1018.3 |
| 20260504025253 | 20 | 360 | 4.8 | 9.7 | 0.00 | 0.00 | 0.00 | 53 | 1018.3 |
| 20260504025132 | 20 | 360 | 4.8 | 9.7 | 0.00 | 0.00 | 0.00 | 53 | 1018.3 |
| 20260504025032 | 20 | 360 | 4.8 | 9.7 | 0.00 | 0.00 | 0.00 | 53 | 1018.4 |
| 20260504024918 | 20 | 360 | 4.8 | 9.7 | 0.00 | 0.00 | 0.00 | 53 | 1018.2 |
| 20260504024838 | 20 | 360 | 4.8 | 9.7 | 0.00 | 0.00 | 0.00 | 53 | 1018.3 |
| 20260504024717 | 20 | 360 | 4.8 | 9.7 | 0.00 | 0.00 | 0.00 | 53 | 1018.3 |
| 20260504024619 | 20 | 360 | 4.8 | 9.7 | 0.00 | 0.00 | 0.00 | 53 | 1018.3 |
| 20260504024520 | 20 | 360 | 4.8 | 9.7 | 0.00 | 0.00 | 0.00 | 53 | 1018.3 |
| 20260504024420 | 20 | 360 | 4.8 | 9.7 | 0.00 | 0.00 | 0.00 | 53 | 1018.3 |
| 20260504024321 | 20 | 360 | 4.8 | 9.7 | 0.00 | 0.00 | 0.00 | 53 | 1018.4 |
| 20260504024241 | 20 | 360 | 4.8 | 9.7 | 0.00 | 0.00 | 0.00 | 53 | 1018.3 |
| 20260504024123 | 20 | 360 | 4.8 | 9.7 | 0.00 | 0.00 | 0.00 | 53 | 1018.4 |
| 20260504024023 | 20 | 360 | 4.8 | 9.7 | 0.00 | 0.00 | 0.00 | 53 | 1018.3 |
| 20260504023923 | 20 | 360 | 4.8 | 9.7 | 0.00 | 0.00 | 0.00 | 52 | 1018.3 |
| 20260504023825 | 20 | 360 | 6.4 | 9.7 | 0.00 | 0.00 | 0.00 | 52 | 1018.2 |
| 20260504023725 | 20 | 360 | 4.8 | 9.7 | 0.00 | 0.00 | 0.00 | 53 | 1018.2 |
| 20260504023625 | 20 | 360 | 4.8 | 9.7 | 0.00 | 0.00 | 0.00 | 53 | 1018.2 |
| 20260504023529 | 20 | 360 | 4.8 | 9.7 | 0.00 | 0.00 | 0.00 | 53 | 1018.2 |
| 20260504023431 | 20 | 360 | 4.8 | 9.7 | 0.00 | 0.00 | 0.00 | 53 | 1018.2 |
| 20260504023352 | 20 | 360 | 4.8 | 9.7 | 0.00 | 0.00 | 0.00 | 53 | 1018.2 |
| 20260504023231 | 20 | 360 | 6.4 | 9.7 | 0.00 | 0.00 | 0.00 | 53 | 1018.1 |
| 20260504023130 | 20 | 360 | 4.8 | 9.7 | 0.00 | 0.00 | 0.00 | 52 | 1018.1 |
| 20260504023031 | 20 | 360 | 6.4 | 9.7 | 0.00 | 0.00 | 0.00 | 52 | 1018.2 |
| 20260504022931 | 20 | 360 | 6.4 | 12.9 | 0.00 | 0.00 | 0.00 | 52 | 1018.2 |
| 20260504022852 | 20 | 360 | 4.8 | 12.9 | 0.00 | 0.00 | 0.00 | 52 | 1018.2 |
| 20260504022753 | 20 | 360 | 4.8 | 12.9 | 0.00 | 0.00 | 0.00 | 52 | 1018.1 |
| 20260504022616 | 20 | 360 | 4.8 | 12.9 | 0.00 | 0.00 | 0.00 | 52 | 1018.2 |
| 20260504022516 | 20 | 360 | 4.8 | 12.9 | 0.00 | 0.00 | 0.00 | 52 | 1018.2 |
| 20260504022418 | 20 | 360 | 6.4 | 12.9 | 0.00 | 0.00 | 0.00 | 52 | 1018.2 |
| 20260504022318 | 20 | 360 | 6.4 | 12.9 | 0.00 | 0.00 | 0.00 | 52 | 1018.1 |
| 20260504022218 | 20 | 360 | 6.4 | 12.9 | 0.00 | 0.00 | 0.00 | 52 | 1018.2 |
| 20260504022119 | 20 | 360 | 6.4 | 12.9 | 0.00 | 0.00 | 0.00 | 52 | 1018.1 |
| 20260504022043 | 20 | 360 | 6.4 | 12.9 | 0.00 | 0.00 | 0.00 | 52 | 1018.1 |
| 20260504022004 | 20 | 360 | 6.4 | 12.9 | 0.00 | 0.00 | 0.00 | 52 | 1018.1 |
| 20260504021816 | 21 | 360 | 6.4 | 12.9 | 0.00 | 0.00 | 0.00 | 52 | 1018.1 |
| 20260504021717 | 21 | 360 | 6.4 | 9.7 | 0.00 | 0.00 | 0.00 | 53 | 1018.1 |
| 20260504021617 | 21 | 360 | 6.4 | 9.7 | 0.00 | 0.00 | 0.00 | 51 | 1018.1 |
| 20260504021518 | 21 | 360 | 6.4 | 9.7 | 0.00 | 0.00 | 0.00 | 51 | 1018.1 |
| 20260504021419 | 21 | 360 | 4.8 | 9.7 | 0.00 | 0.00 | 0.00 | 51 | 1018.2 |
| 20260504021324 | 21 | 360 | 4.8 | 9.7 | 0.00 | 0.00 | 0.00 | 51 | 1018.2 |
| 20260504021225 | 21 | 360 | 4.8 | 8.0 | 0.00 | 0.00 | 0.00 | 51 | 1018.2 |
| 20260504021125 | 21 | 360 | 4.8 | 8.0 | 0.00 | 0.00 | 0.00 | 51 | 1018.2 |
| 20260504021047 | 21 | 360 | 4.8 | 8.0 | 0.00 | 0.00 | 0.00 | 51 | 1018.2 |
| 20260504020925 | 21 | 360 | 4.8 | 8.0 | 0.00 | 0.00 | 0.00 | 51 | 1018.2 |
| 20260504020826 | 21 | 360 | 4.8 | 8.0 | 0.00 | 0.00 | 0.00 | 51 | 1018.2 |
| 20260504020726 | 21 | 360 | 4.8 | 8.0 | 0.00 | 0.00 | 0.00 | 51 | 1018.2 |
| 20260504020631 | 21 | 360 | 4.8 | 8.0 | 0.00 | 0.00 | 0.00 | 51 | 1018.1 |
| 20260504020531 | 21 | 360 | 4.8 | 8.0 | 0.00 | 0.00 | 0.00 | 51 | 1018.2 |
| 20260504020432 | 21 | 360 | 4.8 | 8.0 | 0.00 | 0.00 | 0.00 | 51 | 1018.1 |
| 20260504020332 | 21 | 360 | 4.8 | 8.0 | 0.00 | 0.00 | 0.00 | 50 | 1018.1 |
| 20260504020233 | 21 | 360 | 4.8 | 8.0 | 0.00 | 0.00 | 0.00 | 50 | 1018.1 |
| 20260504020134 | 21 | 360 | 4.8 | 8.0 | 0.00 | 0.00 | 0.00 | 50 | 1018.1 |
| 20260504020018 | 21 | 360 | 4.8 | 9.7 | 0.00 | 0.00 | 0.00 | 50 | 1018.1 |
| 20260504015919 | 21 | 360 | 4.8 | 9.7 | 0.00 | 0.00 | 0.00 | 50 | 1018.1 |
| 20260504015821 | 21 | 360 | 4.8 | 9.7 | 0.00 | 0.00 | 0.00 | 50 | 1018.1 |
| 20260504015720 | 21 | 360 | 4.8 | 9.7 | 0.00 | 0.00 | 0.00 | 50 | 1018.0 |
| 20260504015621 | 21 | 360 | 4.8 | 9.7 | 0.00 | 0.00 | 0.00 | 50 | 1018.1 |
| 20260504015522 | 21 | 360 | 4.8 | 9.7 | 0.00 | 0.00 | 0.00 | 50 | 1018.1 |
| 20260504015426 | 21 | 360 | 4.8 | 9.7 | 0.00 | 0.00 | 0.00 | 50 | 1018.1 |
| 20260504015327 | 21 | 360 | 4.8 | 9.7 | 0.00 | 0.00 | 0.00 | 50 | 1018.1 |
| 20260504015227 | 21 | 360 | 4.8 | 9.7 | 0.00 | 0.00 | 0.00 | 50 | 1018.1 |
| 20260504015127 | 21 | 360 | 4.8 | 9.7 | 0.00 | 0.00 | 0.00 | 50 | 1018.1 |
| 20260504015029 | 21 | 360 | 4.8 | 9.7 | 0.00 | 0.00 | 0.00 | 50 | 1018.1 |
| 20260504014951 | 21 | 360 | 4.8 | 9.7 | 0.00 | 0.00 | 0.00 | 50 | 1018.0 |
| 20260504014831 | 21 | 360 | 4.8 | 9.7 | 0.00 | 0.00 | 0.00 | 50 | 1018.0 |
| 20260504014716 | 21 | 360 | 4.8 | 9.7 | 0.00 | 0.00 | 0.00 | 50 | 1018.0 |
| 20260504014616 | 21 | 360 | 4.8 | 9.7 | 0.00 | 0.00 | 0.00 | 50 | 1018.0 |
| 20260504014517 | 21 | 360 | 4.8 | 8.0 | 0.00 | 0.00 | 0.00 | 50 | 1017.9 |
| 20260504014417 | 21 | 360 | 4.8 | 8.0 | 0.00 | 0.00 | 0.00 | 50 | 1017.9 |
| 20260504014318 | 21 | 360 | 4.8 | 8.0 | 0.00 | 0.00 | 0.00 | 50 | 1017.9 |
| 20260504014219 | 21 | 360 | 4.8 | 8.0 | 0.00 | 0.00 | 0.00 | 50 | 1017.8 |
| 20260504014139 | 21 | 360 | 4.8 | 8.0 | 0.00 | 0.00 | 0.00 | 50 | 1017.8 |
| 20260504014024 | 21 | 360 | 4.8 | 8.0 | 0.00 | 0.00 | 0.00 | 49 | 1017.6 |
| 20260504013925 | 21 | 360 | 4.8 | 8.0 | 0.00 | 0.00 | 0.00 | 49 | 1017.8 |
| 20260504013826 | 21 | 360 | 4.8 | 8.0 | 0.00 | 0.00 | 0.00 | 49 | 1017.8 |
| 20260504013727 | 21 | 360 | 6.4 | 9.7 | 0.00 | 0.00 | 0.00 | 49 | 1017.6 |
| 20260504013628 | 21 | 360 | 6.4 | 9.7 | 0.00 | 0.00 | 0.00 | 49 | 1017.7 |
| 20260504013528 | 21 | 360 | 6.4 | 9.7 | 0.00 | 0.00 | 0.00 | 49 | 1017.6 |
| 20260504013427 | 21 | 360 | 6.4 | 9.7 | 0.00 | 0.00 | 0.00 | 49 | 1017.7 |
| 20260504013332 | 21 | 360 | 6.4 | 9.7 | 0.00 | 0.00 | 0.00 | 49 | 1017.6 |
| 20260504013231 | 21 | 360 | 6.4 | 9.7 | 0.00 | 0.00 | 0.00 | 49 | 1017.6 |
| 20260504013132 | 21 | 360 | 6.4 | 12.9 | 0.00 | 0.00 | 0.00 | 49 | 1017.5 |
| 20260504013032 | 21 | 360 | 6.4 | 12.9 | 0.00 | 0.00 | 0.00 | 49 | 1017.6 |
| 20260504012932 | 21 | 360 | 6.4 | 12.9 | 0.00 | 0.00 | 0.00 | 49 | 1017.6 |
| 20260504012833 | 21 | 360 | 6.4 | 12.9 | 0.00 | 0.00 | 0.00 | 49 | 1017.6 |
| 20260504012733 | 22 | 360 | 6.4 | 12.9 | 0.00 | 0.00 | 0.00 | 49 | 1017.6 |
| 20260504012616 | 22 | 360 | 6.4 | 12.9 | 0.00 | 0.00 | 0.00 | 49 | 1017.6 |
| 20260504012517 | 22 | 360 | 6.4 | 12.9 | 0.00 | 0.00 | 0.00 | 48 | 1017.6 |
| 20260504012438 | 22 | 360 | 6.4 | 12.9 | 0.00 | 0.00 | 0.00 | 48 | 1017.5 |
| 20260504012317 | 22 | 360 | 6.4 | 12.9 | 0.00 | 0.00 | 0.00 | 48 | 1017.6 |
| 20260504012217 | 22 | 360 | 6.4 | 12.9 | 0.00 | 0.00 | 0.00 | 48 | 1017.6 |
| 20260504012118 | 22 | 360 | 6.4 | 12.9 | 0.00 | 0.00 | 0.00 | 48 | 1017.6 |
| 20260504012018 | 22 | 360 | 8.0 | 12.9 | 0.00 | 0.00 | 0.00 | 48 | 1017.6 |
| 20260504011923 | 22 | 360 | 8.0 | 12.9 | 0.00 | 0.00 | 0.00 | 48 | 1017.5 |
| 20260504011822 | 22 | 360 | 8.0 | 12.9 | 0.00 | 0.00 | 0.00 | 48 | 1017.5 |
| 20260504011743 | 22 | 360 | 8.0 | 12.9 | 0.00 | 0.00 | 0.00 | 48 | 1017.6 |
| 20260504011623 | 22 | 360 | 6.4 | 12.9 | 0.00 | 0.00 | 0.00 | 48 | 1017.6 |
| 20260504011524 | 22 | 360 | 6.4 | 12.9 | 0.00 | 0.00 | 0.00 | 48 | 1017.6 |
| 20260504011424 | 22 | 360 | 8.0 | 12.9 | 0.00 | 0.00 | 0.00 | 48 | 1017.6 |
| 20260504011325 | 22 | 360 | 6.4 | 12.9 | 0.00 | 0.00 | 0.00 | 48 | 1017.5 |
| 20260504011229 | 22 | 360 | 6.4 | 12.9 | 0.00 | 0.00 | 0.00 | 47 | 1017.5 |
| 20260504011129 | 22 | 360 | 6.4 | 12.9 | 0.00 | 0.00 | 0.00 | 47 | 1017.6 |
| 20260504011030 | 22 | 360 | 6.4 | 12.9 | 0.00 | 0.00 | 0.00 | 47 | 1017.6 |
| 20260504010930 | 22 | 360 | 6.4 | 12.9 | 0.00 | 0.00 | 0.00 | 47 | 1017.5 |
| 20260504010831 | 22 | 360 | 6.4 | 12.9 | 0.00 | 0.00 | 0.00 | 47 | 1017.6 |
| 20260504010752 | 22 | 360 | 6.4 | 12.9 | 0.00 | 0.00 | 0.00 | 47 | 1017.6 |
| 20260504010615 | 22 | 360 | 8.0 | 12.9 | 0.00 | 0.00 | 0.00 | 47 | 1017.7 |
| 20260504010516 | 22 | 360 | 8.0 | 14.5 | 0.00 | 0.00 | 0.00 | 47 | 1017.7 |
| 20260504010437 | 22 | 360 | 8.0 | 14.5 | 0.00 | 0.00 | 0.00 | 47 | 1017.6 |
| 20260504010336 | 22 | 360 | 6.4 | 14.5 | 0.00 | 0.00 | 0.00 | 47 | 1017.6 |
| 20260504010216 | 22 | 360 | 6.4 | 14.5 | 0.00 | 0.00 | 0.00 | 47 | 1017.6 |
| 20260504010116 | 22 | 360 | 6.4 | 14.5 | 0.00 | 0.00 | 0.00 | 47 | 1017.6 |
| 20260504010016 | 22 | 360 | 6.4 | 14.5 | 0.00 | 0.00 | 0.00 | 47 | 1017.6 |
| 20260504005922 | 22 | 360 | 6.4 | 14.5 | 0.00 | 0.00 | 0.00 | 47 | 1017.6 |
| 20260504005823 | 22 | 360 | 8.0 | 14.5 | 0.00 | 0.00 | 0.00 | 47 | 1017.6 |
| 20260504005722 | 22 | 360 | 8.0 | 14.5 | 0.00 | 0.00 | 0.00 | 46 | 1017.6 |
| 20260504005643 | 22 | 360 | 8.0 | 14.5 | 0.00 | 0.00 | 0.00 | 46 | 1017.6 |
| 20260504005522 | 22 | 360 | 9.7 | 14.5 | 0.00 | 0.00 | 0.00 | 46 | 1017.7 |
| 20260504005423 | 22 | 360 | 9.7 | 14.5 | 0.00 | 0.00 | 0.00 | 46 | 1017.7 |
| 20260504005323 | 22 | 360 | 9.7 | 14.5 | 0.00 | 0.00 | 0.00 | 46 | 1017.8 |
| 20260504005244 | 23 | 360 | 8.0 | 14.5 | 0.00 | 0.00 | 0.00 | 46 | 1017.8 |
| 20260504005127 | 23 | 360 | 8.0 | 14.5 | 0.00 | 0.00 | 0.00 | 46 | 1017.8 |
| 20260504005028 | 23 | 360 | 8.0 | 14.5 | 0.00 | 0.00 | 0.00 | 46 | 1017.8 |
| 20260504004929 | 23 | 360 | 8.0 | 19.3 | 0.00 | 0.00 | 0.00 | 46 | 1017.7 |
| 20260504004829 | 23 | 360 | 8.0 | 19.3 | 0.00 | 0.00 | 0.00 | 45 | 1017.6 |
| 20260504004729 | 23 | 360 | 9.7 | 19.3 | 0.00 | 0.00 | 0.00 | 45 | 1017.6 |
| 20260504004630 | 23 | 360 | 11.3 | 19.3 | 0.00 | 0.00 | 0.00 | 45 | 1017.6 |
| 20260504004534 | 23 | 360 | 11.3 | 19.3 | 0.00 | 0.00 | 0.00 | 45 | 1017.6 |
| 20260504004435 | 23 | 360 | 11.3 | 19.3 | 0.00 | 0.00 | 0.00 | 45 | 1017.7 |
| 20260504004355 | 23 | 360 | 11.3 | 19.3 | 0.00 | 0.00 | 0.00 | 45 | 1017.7 |
| 20260504004235 | 23 | 360 | 11.3 | 19.3 | 0.00 | 0.00 | 0.00 | 45 | 1017.5 |
| 20260504004116 | 23 | 360 | 11.3 | 22.5 | 0.00 | 0.00 | 0.00 | 45 | 1017.6 |
| 20260504004037 | 23 | 360 | 9.7 | 22.5 | 0.00 | 0.00 | 0.00 | 45 | 1017.6 |
| 20260504003936 | 23 | 360 | 9.7 | 22.5 | 0.00 | 0.00 | 0.00 | 45 | 1017.6 |
| 20260504003821 | 23 | 360 | 11.3 | 22.5 | 0.00 | 0.00 | 0.00 | 45 | 1017.6 |
| 20260504003722 | 23 | 360 | 11.3 | 22.5 | 0.00 | 0.00 | 0.00 | 45 | 1017.6 |
| 20260504003642 | 23 | 360 | 11.3 | 22.5 | 0.00 | 0.00 | 0.00 | 44 | 1017.6 |
| 20260504003604 | 23 | 360 | 11.3 | 22.5 | 0.00 | 0.00 | 0.00 | 44 | 1017.6 |
| 20260504003416 | 23 | 360 | 11.3 | 22.5 | 0.00 | 0.00 | 0.00 | 44 | 1017.7 |
| 20260504003316 | 23 | 360 | 11.3 | 22.5 | 0.00 | 0.00 | 0.00 | 44 | 1017.7 |
| 20260504003216 | 23 | 360 | 11.3 | 22.5 | 0.00 | 0.00 | 0.00 | 44 | 1017.6 |
| 20260504003121 | 23 | 360 | 11.3 | 25.7 | 0.00 | 0.00 | 0.00 | 44 | 1017.6 |
| 20260504003021 | 23 | 360 | 11.3 | 25.7 | 0.00 | 0.00 | 0.00 | 44 | 1017.6 |
| 20260504002942 | 23 | 360 | 11.3 | 25.7 | 0.00 | 0.00 | 0.00 | 44 | 1017.6 |
| 20260504002843 | 23 | 360 | 11.3 | 25.7 | 0.00 | 0.00 | 0.00 | 44 | 1017.6 |
| 20260504002716 | 23 | 360 | 9.7 | 25.7 | 0.00 | 0.00 | 0.00 | 44 | 1017.6 |
| 20260504002617 | 23 | 360 | 11.3 | 25.7 | 0.00 | 0.00 | 0.00 | 44 | 1017.7 |
| 20260504002518 | 23 | 360 | 11.3 | 25.7 | 0.00 | 0.00 | 0.00 | 44 | 1017.6 |
| 20260504002421 | 23 | 360 | 11.3 | 25.7 | 0.00 | 0.00 | 0.00 | 44 | 1017.6 |
| 20260504002322 | 23 | 360 | 12.9 | 25.7 | 0.00 | 0.00 | 0.00 | 44 | 1017.7 |
| 20260504002222 | 23 | 360 | 14.5 | 25.7 | 0.00 | 0.00 | 0.00 | 44 | 1017.8 |
| 20260504002123 | 23 | 360 | 14.5 | 25.7 | 0.00 | 0.00 | 0.00 | 44 | 1017.9 |
| 20260504002042 | 23 | 360 | 16.1 | 25.7 | 0.00 | 0.00 | 0.00 | 44 | 1017.9 |
| 20260504001916 | 23 | 360 | 16.1 | 25.7 | 0.00 | 0.00 | 0.00 | 42 | 1017.8 |
| 20260504001837 | 23 | 360 | 14.5 | 25.7 | 0.00 | 0.00 | 0.00 | 42 | 1017.9 |
| 20260504001738 | 23 | 360 | 14.5 | 25.7 | 0.00 | 0.00 | 0.00 | 42 | 1017.9 |
| 20260504001622 | 23 | 360 | 16.1 | 25.7 | 0.00 | 0.00 | 0.00 | 42 | 1018.0 |
| 20260504001522 | 23 | 360 | 16.1 | 25.7 | 0.00 | 0.00 | 0.00 | 42 | 1017.9 |
| 20260504001423 | 23 | 360 | 12.9 | 25.7 | 0.00 | 0.00 | 0.00 | 42 | 1018.0 |
| 20260504001324 | 23 | 360 | 11.3 | 25.7 | 0.00 | 0.00 | 0.00 | 42 | 1018.0 |
| 20260504001225 | 23 | 360 | 11.3 | 25.7 | 0.00 | 0.00 | 0.00 | 42 | 1017.9 |
| 20260504001124 | 23 | 360 | 12.9 | 25.7 | 0.00 | 0.00 | 0.00 | 42 | 1018.0 |
| 20260504001029 | 23 | 360 | 11.3 | 25.7 | 0.00 | 0.00 | 0.00 | 42 | 1018.0 |
| 20260504000930 | 23 | 360 | 12.9 | 25.7 | 0.00 | 0.00 | 0.00 | 42 | 1018.0 |
| 20260504000850 | 23 | 360 | 12.9 | 25.7 | 0.00 | 0.00 | 0.00 | 42 | 1018.1 |
| 20260504000729 | 23 | 360 | 14.5 | 25.7 | 0.00 | 0.00 | 0.00 | 42 | 1018.0 |
| 20260504000629 | 23 | 360 | 14.5 | 25.7 | 0.00 | 0.00 | 0.00 | 42 | 1018.0 |
| 20260504000550 | 23 | 360 | 16.1 | 24.1 | 0.00 | 0.00 | 0.00 | 42 | 1018.1 |
| 20260504000431 | 23 | 360 | 16.1 | 25.7 | 0.00 | 0.00 | 0.00 | 42 | 1018.1 |
| 20260504000349 | 23 | 360 | 16.1 | 25.7 | 0.00 | 0.00 | 0.00 | 41 | 1018.0 |
| 20260504000234 | 23 | 360 | 14.5 | 25.7 | 0.00 | 0.00 | 0.00 | 41 | 1018.0 |
| 20260504000153 | 23 | 360 | 14.5 | 25.7 | 0.00 | 0.00 | 0.00 | 41 | 1018.1 |
| 20260504000052 | 23 | 360 | 12.9 | 25.7 | 0.00 | 0.00 | 0.00 | 41 | 1018.1 |
| 20260503235953 | 23 | 360 | 11.3 | 24.1 | 0.00 | 0.00 | 0.00 | 42 | 1018.1 |
| 20260503235832 | 23 | 360 | 11.3 | 24.1 | 0.00 | 0.00 | 0.00 | 41 | 1018.2 |
| 20260503235734 | 23 | 360 | 11.3 | 20.9 | 0.00 | 0.00 | 0.00 | 42 | 1018.1 |
| 20260503235634 | 23 | 360 | 9.7 | 17.7 | 0.00 | 0.00 | 0.00 | 43 | 1018.2 |
| 20260503235534 | 24 | 360 | 8.0 | 17.7 | 0.00 | 0.00 | 0.00 | 43 | 1018.1 |
| 20260503235419 | 24 | 360 | 8.0 | 17.7 | 0.00 | 0.00 | 0.00 | 43 | 1018.2 |
| 20260503235319 | 24 | 360 | 8.0 | 17.7 | 0.00 | 0.00 | 0.00 | 41 | 1018.2 |
| 20260503235220 | 24 | 360 | 8.0 | 17.7 | 0.00 | 0.00 | 0.00 | 41 | 1018.2 |
| 20260503235140 | 24 | 360 | 6.4 | 17.7 | 0.00 | 0.00 | 0.00 | 41 | 1018.2 |
| 20260503235040 | 24 | 360 | 6.4 | 14.5 | 0.00 | 0.00 | 0.00 | 41 | 1018.2 |
| 20260503234919 | 24 | 360 | 6.4 | 12.9 | 0.00 | 0.00 | 0.00 | 41 | 1018.3 |
| 20260503234820 | 24 | 360 | 6.4 | 22.5 | 0.00 | 0.00 | 0.00 | 41 | 1018.3 |
| 20260503234724 | 24 | 360 | 6.4 | 27.4 | 0.00 | 0.00 | 0.00 | 41 | 1018.3 |
| 20260503234624 | 24 | 360 | 6.4 | 27.4 | 0.00 | 0.00 | 0.00 | 41 | 1018.4 |
| 20260503234525 | 24 | 360 | 8.0 | 27.4 | 0.00 | 0.00 | 0.00 | 41 | 1018.3 |
| 20260503234425 | 24 | 360 | 9.7 | 27.4 | 0.00 | 0.00 | 0.00 | 41 | 1018.4 |
| 20260503234325 | 24 | 360 | 11.3 | 27.4 | 0.00 | 0.00 | 0.00 | 41 | 1018.3 |
| 20260503234225 | 24 | 360 | 11.3 | 27.4 | 0.00 | 0.00 | 0.00 | 41 | 1018.3 |
| 20260503234125 | 24 | 360 | 12.9 | 27.4 | 0.00 | 0.00 | 0.00 | 40 | 1018.3 |
| 20260503234030 | 24 | 360 | 12.9 | 27.4 | 0.00 | 0.00 | 0.00 | 40 | 1018.3 |
| 20260503233930 | 24 | 360 | 12.9 | 27.4 | 0.00 | 0.00 | 0.00 | 41 | 1018.3 |
| 20260503233831 | 24 | 360 | 11.3 | 27.4 | 0.00 | 0.00 | 0.00 | 41 | 1018.3 |
| 20260503233751 | 24 | 360 | 11.3 | 27.4 | 0.00 | 0.00 | 0.00 | 41 | 1018.3 |
| 20260503233631 | 24 | 360 | 12.9 | 27.4 | 0.00 | 0.00 | 0.00 | 41 | 1018.3 |
| 20260503233531 | 24 | 360 | 14.5 | 27.4 | 0.00 | 0.00 | 0.00 | 41 | 1018.2 |
| 20260503233432 | 24 | 360 | 14.5 | 27.4 | 0.00 | 0.00 | 0.00 | 41 | 1018.2 |
| 20260503233316 | 24 | 360 | 14.5 | 27.4 | 0.00 | 0.00 | 0.00 | 41 | 1018.2 |
| 20260503233216 | 24 | 360 | 16.1 | 27.4 | 0.00 | 0.00 | 0.00 | 40 | 1018.3 |
| 20260503233137 | 24 | 360 | 16.1 | 27.4 | 0.00 | 0.00 | 0.00 | 40 | 1018.2 |
| 20260503233016 | 24 | 360 | 14.5 | 27.4 | 0.00 | 0.00 | 0.00 | 40 | 1018.3 |
| 20260503232917 | 24 | 360 | 14.5 | 27.4 | 0.00 | 0.00 | 0.00 | 40 | 1018.3 |
| 20260503232819 | 24 | 360 | 12.9 | 27.4 | 0.00 | 0.00 | 0.00 | 40 | 1018.3 |
| 20260503232739 | 24 | 360 | 12.9 | 27.4 | 0.00 | 0.00 | 0.00 | 40 | 1018.2 |
| 20260503232622 | 24 | 360 | 11.3 | 27.4 | 0.00 | 0.00 | 0.00 | 40 | 1018.2 |
| 20260503232523 | 24 | 360 | 12.9 | 27.4 | 0.00 | 0.00 | 0.00 | 40 | 1018.2 |
| 20260503232423 | 24 | 360 | 12.9 | 27.4 | 0.00 | 0.00 | 0.00 | 41 | 1018.3 |
| 20260503232323 | 24 | 360 | 12.9 | 27.4 | 0.00 | 0.00 | 0.00 | 41 | 1018.2 |
| 20260503232223 | 24 | 360 | 14.5 | 27.4 | 0.00 | 0.00 | 0.00 | 41 | 1018.2 |
| 20260503232124 | 24 | 360 | 14.5 | 27.4 | 0.00 | 0.00 | 0.00 | 40 | 1018.4 |
| 20260503232025 | 24 | 360 | 14.5 | 27.4 | 0.00 | 0.00 | 0.00 | 40 | 1018.4 |
| 20260503231949 | 24 | 360 | 16.1 | 27.4 | 0.00 | 0.00 | 0.00 | 40 | 1018.4 |
| 20260503231849 | 24 | 360 | 16.1 | 27.4 | 0.00 | 0.00 | 0.00 | 40 | 1018.4 |
| 20260503231727 | 24 | 360 | 14.5 | 27.4 | 0.00 | 0.00 | 0.00 | 40 | 1018.4 |
| 20260503231648 | 24 | 360 | 12.9 | 25.7 | 0.00 | 0.00 | 0.00 | 40 | 1018.4 |
| 20260503231527 | 24 | 360 | 12.9 | 29.0 | 0.00 | 0.00 | 0.00 | 40 | 1018.4 |
| 20260503231426 | 24 | 360 | 12.9 | 29.0 | 0.00 | 0.00 | 0.00 | 40 | 1018.3 |
| 20260503231327 | 24 | 360 | 12.9 | 29.0 | 0.00 | 0.00 | 0.00 | 40 | 1018.2 |
| 20260503231247 | 24 | 360 | 12.9 | 29.0 | 0.00 | 0.00 | 0.00 | 41 | 1018.3 |